Wetterdaten: Donnerstag, 17.11.2016
Datum Zeit Temp. Aussen Temp. o. S. +5cm Feuchte Auss BlattFeu 1 Luftdruck Regen Sonnenschein Regendauer Solar Windben Empfang
17.11.2016 00:00 11,2 C 11,7 C 10,0 C 92 % 0 lf 1010,4 hPa 0,0 l/m 0 min 0 min 0 W/m 29,3 km/h (5 Bft) 97,87 %
17.11.2016 00:02 11,2 C 11,1 C 10,0 C 92 % 0 lf 1010,5 hPa 0,0 l/m 0 min 0 min 0 W/m 29,3 km/h (5 Bft) 94,12 %
17.11.2016 00:05 11,2 C 11,1 C 10,0 C 92 % 0 lf 1010,4 hPa 0,0 l/m 0 min 0 min 0 W/m 27,2 km/h (4 Bft) 98,57 %
17.11.2016 00:08 11,2 C 11,1 C 10,0 C 92 % 0 lf 1010,4 hPa 0,0 l/m 0 min 0 min 0 W/m 25,1 km/h (4 Bft) 98,57 %
17.11.2016 00:10 11,2 C 11,1 C 10,0 C 92 % 0 lf 1010,4 hPa 0,0 l/m 0 min 0 min 0 W/m 27,2 km/h (4 Bft) 97,87 %
17.11.2016 00:12 11,2 C 11,1 C 10,0 C 92 % 0 lf 1010,3 hPa 0,0 l/m 0 min 0 min 0 W/m 27,2 km/h (4 Bft) 100,00 %
17.11.2016 00:14 11,2 C 11,1 C 10,0 C 92 % 0 lf 1010,3 hPa 0,0 l/m 0 min 0 min 0 W/m 23,0 km/h (4 Bft) 100,00 %
17.11.2016 00:16 11,2 C 11,1 C 10,0 C 92 % 0 lf 1010,4 hPa 0,0 l/m 0 min 0 min 0 W/m 23,0 km/h (4 Bft) 100,00 %
17.11.2016 00:18 11,2 C 11,1 C 10,0 C 92 % 0 lf 1010,4 hPa 0,0 l/m 0 min 0 min 0 W/m 25,1 km/h (4 Bft) 95,74 %
17.11.2016 00:20 11,2 C 11,1 C 10,0 C 92 % 0 lf 1010,3 hPa 0,0 l/m 0 min 0 min 0 W/m 23,0 km/h (4 Bft) 97,83 %
17.11.2016 00:22 11,2 C 11,1 C 10,0 C 92 % 0 lf 1010,3 hPa 0,0 l/m 0 min 0 min 0 W/m 23,0 km/h (4 Bft) 100,00 %
17.11.2016 00:24 11,2 C 11,1 C 10,0 C 92 % 0 lf 1010,3 hPa 0,0 l/m 0 min 0 min 0 W/m 29,3 km/h (5 Bft) 100,00 %
17.11.2016 00:26 11,2 C 11,1 C 9,4 C 92 % 0 lf 1010,2 hPa 0,0 l/m 0 min 0 min 0 W/m 18,8 km/h (3 Bft) 97,87 %
17.11.2016 00:28 11,2 C 11,1 C 10,0 C 92 % 0 lf 1010,2 hPa 0,0 l/m 0 min 0 min 0 W/m 25,1 km/h (4 Bft) 100,00 %
17.11.2016 00:30 11,2 C 11,1 C 9,4 C 92 % 0 lf 1010,2 hPa 0,0 l/m 0 min 0 min 0 W/m 18,8 km/h (3 Bft) 97,87 %
17.11.2016 00:32 11,2 C 11,1 C 9,4 C 92 % 1 lf 1010,2 hPa 0,0 l/m 0 min 0 min 0 W/m 16,7 km/h (3 Bft) 97,83 %
17.11.2016 00:34 11,2 C 11,1 C 9,4 C 92 % 0 lf 1010,2 hPa 0,0 l/m 0 min 0 min 0 W/m 23,0 km/h (4 Bft) 95,74 %
17.11.2016 00:36 11,2 C 11,1 C 9,4 C 92 % 0 lf 1010,2 hPa 0,0 l/m 0 min 0 min 0 W/m 27,2 km/h (4 Bft) 100,00 %
17.11.2016 00:38 11,2 C 11,1 C 9,4 C 92 % 0 lf 1010,2 hPa 0,0 l/m 0 min 0 min 0 W/m 18,8 km/h (3 Bft) 97,87 %
17.11.2016 00:40 11,2 C 11,1 C 9,4 C 92 % 0 lf 1010,2 hPa 0,0 l/m 0 min 0 min 0 W/m 23,0 km/h (4 Bft) 93,62 %
17.11.2016 00:42 11,1 C 11,1 C 9,4 C 92 % 0 lf 1010,1 hPa 0,0 l/m 0 min 0 min 0 W/m 29,3 km/h (5 Bft) 97,87 %
17.11.2016 00:44 11,1 C 11,1 C 9,4 C 92 % 0 lf 1010,1 hPa 0,0 l/m 0 min 2 min 0 W/m 20,9 km/h (4 Bft) 100,00 %
17.11.2016 00:46 11,1 C 11,1 C 9,4 C 92 % 0 lf 1010,0 hPa 0,0 l/m 0 min 0 min 0 W/m 25,1 km/h (4 Bft) 100,00 %
17.11.2016 00:48 11,1 C 11,1 C 9,4 C 92 % 0 lf 1010,1 hPa 0,0 l/m 0 min 0 min 0 W/m 25,1 km/h (4 Bft) 100,00 %
17.11.2016 00:50 11,1 C 11,1 C 9,4 C 92 % 0 lf 1009,9 hPa 0,0 l/m 0 min 0 min 0 W/m 33,5 km/h (5 Bft) 97,87 %
17.11.2016 00:52 11,1 C 11,1 C 9,4 C 92 % 1 lf 1010,0 hPa 0,0 l/m 0 min 0 min 0 W/m 29,3 km/h (5 Bft) 97,87 %
17.11.2016 00:54 11,1 C 11,1 C 9,4 C 92 % 0 lf 1010,0 hPa 0,0 l/m 0 min 0 min 0 W/m 29,3 km/h (5 Bft) 93,62 %
17.11.2016 00:56 11,1 C 11,1 C 9,4 C 92 % 0 lf 1009,9 hPa 0,0 l/m 0 min 0 min 0 W/m 29,3 km/h (5 Bft) 95,65 %
17.11.2016 00:58 11,1 C 11,1 C 9,4 C 92 % 0 lf 1009,9 hPa 0,0 l/m 0 min 0 min 0 W/m 31,4 km/h (5 Bft) 89,36 %
17.11.2016 01:00 11,1 C 11,1 C 9,4 C 92 % 0 lf 1009,8 hPa 0,0 l/m 0 min 0 min 0 W/m 31,4 km/h (5 Bft) 95,74 %
17.11.2016 01:02 11,1 C 11,1 C 9,4 C 92 % 1 lf 1009,8 hPa 0,0 l/m 0 min 2 min 0 W/m 33,5 km/h (5 Bft) 92,00 %
17.11.2016 01:04 11,1 C 11,1 C 9,4 C 92 % 0 lf 1009,8 hPa 0,0 l/m 0 min 2 min 0 W/m 29,3 km/h (5 Bft) 93,62 %
17.11.2016 01:06 11,1 C 11,1 C 9,4 C 92 % 0 lf 1009,8 hPa 0,0 l/m 0 min 0 min 0 W/m 18,8 km/h (3 Bft) 93,62 %
17.11.2016 01:08 11,1 C 11,1 C 9,4 C 92 % 0 lf 1009,7 hPa 0,0 l/m 0 min 0 min 0 W/m 31,4 km/h (5 Bft) 93,62 %
17.11.2016 01:10 11,1 C 11,1 C 9,4 C 92 % 0 lf 1009,8 hPa 0,0 l/m 0 min 0 min 0 W/m 23,0 km/h (4 Bft) 91,49 %
17.11.2016 01:12 11,1 C 11,1 C 9,4 C 92 % 0 lf 1009,7 hPa 0,0 l/m 0 min 0 min 0 W/m 23,0 km/h (4 Bft) 93,48 %
17.11.2016 01:14 11,1 C 11,1 C 9,4 C 92 % 0 lf 1009,7 hPa 0,0 l/m 0 min 0 min 0 W/m 23,0 km/h (4 Bft) 93,62 %
17.11.2016 01:16 11,0 C 11,1 C 9,4 C 92 % 0 lf 1009,6 hPa 0,0 l/m 0 min 0 min 0 W/m 27,2 km/h (4 Bft) 93,62 %
17.11.2016 01:18 11,0 C 11,1 C 9,4 C 92 % 0 lf 1009,7 hPa 0,0 l/m 0 min 0 min 0 W/m 29,3 km/h (5 Bft) 93,62 %
17.11.2016 01:20 11,0 C 11,1 C 9,4 C 92 % 0 lf 1009,6 hPa 0,0 l/m 0 min 0 min 0 W/m 27,2 km/h (4 Bft) 93,62 %
17.11.2016 01:22 11,0 C 11,1 C 9,4 C 92 % 0 lf 1009,6 hPa 0,0 l/m 0 min 0 min 0 W/m 20,9 km/h (4 Bft) 95,74 %
17.11.2016 01:24 11,0 C 11,1 C 9,4 C 92 % 0 lf 1009,7 hPa 0,0 l/m 0 min 0 min 0 W/m 25,1 km/h (4 Bft) 93,48 %
17.11.2016 01:26 10,9 C 11,1 C 9,4 C 92 % 0 lf 1009,6 hPa 0,0 l/m 0 min 0 min 0 W/m 31,4 km/h (5 Bft) 95,74 %
17.11.2016 01:28 10,9 C 11,1 C 9,4 C 92 % 0 lf 1009,5 hPa 0,0 l/m 0 min 0 min 0 W/m 18,8 km/h (3 Bft) 95,74 %
17.11.2016 01:30 10,9 C 11,1 C 9,4 C 92 % 0 lf 1009,5 hPa 0,0 l/m 0 min 0 min 0 W/m 20,9 km/h (4 Bft) 95,74 %
17.11.2016 01:32 10,9 C 11,1 C 9,4 C 92 % 0 lf 1009,4 hPa 0,0 l/m 0 min 0 min 0 W/m 20,9 km/h (4 Bft) 95,74 %
17.11.2016 01:34 10,9 C 11,1 C 9,4 C 92 % 0 lf 1009,4 hPa 0,0 l/m 0 min 0 min 0 W/m 20,9 km/h (4 Bft) 95,74 %
17.11.2016 01:36 10,9 C 11,1 C 9,4 C 92 % 0 lf 1009,3 hPa 0,0 l/m 0 min 0 min 0 W/m 23,0 km/h (4 Bft) 95,65 %
17.11.2016 01:38 10,9 C 11,1 C 9,4 C 92 % 0 lf 1009,3 hPa 0,0 l/m 0 min 0 min 0 W/m 20,9 km/h (4 Bft) 95,74 %
17.11.2016 01:40 10,9 C 11,1 C 9,4 C 92 % 0 lf 1009,4 hPa 0,0 l/m 0 min 0 min 0 W/m 31,4 km/h (5 Bft) 95,74 %
17.11.2016 01:42 10,9 C 11,1 C 9,4 C 92 % 0 lf 1009,3 hPa 0,0 l/m 0 min 0 min 0 W/m 31,4 km/h (5 Bft) 97,87 %
17.11.2016 01:44 10,9 C 11,1 C 9,4 C 92 % 0 lf 1009,4 hPa 0,0 l/m 0 min 0 min 0 W/m 25,1 km/h (4 Bft) 97,87 %
17.11.2016 01:46 10,9 C 11,1 C 9,4 C 92 % 0 lf 1009,3 hPa 0,0 l/m 0 min 0 min 0 W/m 25,1 km/h (4 Bft) 95,74 %
17.11.2016 01:48 10,9 C 11,1 C 9,4 C 92 % 0 lf 1009,2 hPa 0,0 l/m 0 min 0 min 0 W/m 27,2 km/h (4 Bft) 93,48 %
17.11.2016 01:50 10,8 C 11,1 C 9,4 C 92 % 0 lf 1009,2 hPa 0,0 l/m 0 min 0 min 0 W/m 25,1 km/h (4 Bft) 95,74 %
17.11.2016 01:52 10,8 C 10,6 C 9,4 C 92 % 0 lf 1009,2 hPa 0,0 l/m 0 min 0 min 0 W/m 20,9 km/h (4 Bft) 97,87 %
17.11.2016 01:54 10,8 C 10,6 C 9,4 C 92 % 0 lf 1009,2 hPa 0,0 l/m 0 min 0 min 0 W/m 18,8 km/h (3 Bft) 95,74 %
17.11.2016 01:56 10,8 C 10,6 C 9,4 C 92 % 0 lf 1009,2 hPa 0,0 l/m 0 min 0 min 0 W/m 25,1 km/h (4 Bft) 97,87 %
17.11.2016 01:58 10,8 C 11,1 C 9,4 C 92 % 0 lf 1009,2 hPa 0,0 l/m 0 min 0 min 0 W/m 25,1 km/h (4 Bft) 97,83 %
17.11.2016 02:00 10,8 C 11,1 C 9,4 C 92 % 0 lf 1009,1 hPa 0,0 l/m 0 min 0 min 0 W/m 20,9 km/h (4 Bft) 93,62 %
17.11.2016 02:02 10,8 C 11,1 C 9,4 C 92 % 0 lf 1009,0 hPa 0,0 l/m 0 min 0 min 0 W/m 20,9 km/h (4 Bft) 95,74 %
17.11.2016 02:04 10,8 C 10,6 C 9,4 C 92 % 0 lf 1008,9 hPa 0,0 l/m 0 min 0 min 0 W/m 25,1 km/h (4 Bft) 97,87 %
17.11.2016 02:06 10,8 C 10,6 C 9,4 C 92 % 0 lf 1008,8 hPa 0,0 l/m 0 min 0 min 0 W/m 23,0 km/h (4 Bft) 97,87 %
17.11.2016 02:08 10,8 C 10,6 C 8,9 C 92 % 0 lf 1008,8 hPa 0,0 l/m 0 min 0 min 0 W/m 18,8 km/h (3 Bft) 97,87 %
17.11.2016 02:10 10,8 C 10,6 C 9,4 C 92 % 0 lf 1008,9 hPa 0,0 l/m 0 min 0 min 0 W/m 29,3 km/h (5 Bft) 91,30 %
17.11.2016 02:12 10,8 C 11,1 C 9,4 C 92 % 0 lf 1008,8 hPa 0,0 l/m 0 min 0 min 0 W/m 27,2 km/h (4 Bft) 97,87 %
17.11.2016 02:14 10,8 C 10,6 C 9,4 C 92 % 0 lf 1008,8 hPa 0,0 l/m 0 min 0 min 0 W/m 25,1 km/h (4 Bft) 95,74 %
17.11.2016 02:16 10,8 C 10,6 C 9,4 C 91 % 0 lf 1008,7 hPa 0,0 l/m 0 min 0 min 0 W/m 25,1 km/h (4 Bft) 95,74 %
17.11.2016 02:18 10,8 C 10,6 C 9,4 C 91 % 0 lf 1008,8 hPa 0,0 l/m 0 min 0 min 0 W/m 20,9 km/h (4 Bft) 95,74 %
17.11.2016 02:20 10,7 C 10,6 C 9,4 C 91 % 0 lf 1008,8 hPa 0,0 l/m 0 min 0 min 0 W/m 14,6 km/h (3 Bft) 95,74 %
17.11.2016 02:22 10,7 C 10,6 C 9,4 C 91 % 0 lf 1008,8 hPa 0,0 l/m 0 min 0 min 0 W/m 16,7 km/h (3 Bft) 97,83 %
17.11.2016 02:24 10,7 C 10,6 C 9,4 C 91 % 0 lf 1008,7 hPa 0,0 l/m 0 min 0 min 0 W/m 25,1 km/h (4 Bft) 95,74 %
17.11.2016 02:26 10,7 C 10,6 C 9,4 C 91 % 0 lf 1008,7 hPa 0,0 l/m 0 min 0 min 0 W/m 29,3 km/h (5 Bft) 97,87 %
17.11.2016 02:28 10,7 C 10,6 C 9,4 C 91 % 0 lf 1008,7 hPa 0,0 l/m 0 min 0 min 0 W/m 29,3 km/h (5 Bft) 95,74 %
17.11.2016 02:30 10,7 C 10,6 C 9,4 C 91 % 0 lf 1008,5 hPa 0,0 l/m 0 min 0 min 0 W/m 25,1 km/h (4 Bft) 97,87 %
17.11.2016 02:32 10,7 C 10,6 C 9,4 C 91 % 0 lf 1008,6 hPa 0,0 l/m 0 min 2 min 0 W/m 20,9 km/h (4 Bft) 95,74 %
17.11.2016 02:34 10,7 C 10,6 C 8,9 C 91 % 0 lf 1008,5 hPa 0,0 l/m 0 min 0 min 0 W/m 23,0 km/h (4 Bft) 91,30 %
17.11.2016 02:36 10,7 C 10,6 C 9,4 C 91 % 0 lf 1008,5 hPa 0,0 l/m 0 min 0 min 0 W/m 29,3 km/h (5 Bft) 95,74 %
17.11.2016 02:38 10,7 C 10,6 C 9,4 C 91 % 0 lf 1008,5 hPa 0,0 l/m 0 min 0 min 0 W/m 20,9 km/h (4 Bft) 93,62 %
17.11.2016 02:40 10,7 C 10,6 C 9,4 C 91 % 0 lf 1008,4 hPa 0,0 l/m 0 min 0 min 0 W/m 31,4 km/h (5 Bft) 97,87 %
17.11.2016 02:42 10,7 C 10,6 C 8,9 C 91 % 0 lf 1008,4 hPa 0,0 l/m 0 min 0 min 0 W/m 18,8 km/h (3 Bft) 97,87 %
17.11.2016 02:44 10,7 C 10,6 C 8,9 C 91 % 0 lf 1008,4 hPa 0,0 l/m 0 min 0 min 0 W/m 20,9 km/h (4 Bft) 95,74 %
17.11.2016 02:46 10,7 C 10,6 C 8,9 C 91 % 0 lf 1008,3 hPa 0,0 l/m 0 min 0 min 0 W/m 23,0 km/h (4 Bft) 95,65 %
17.11.2016 02:48 10,7 C 10,6 C 8,9 C 91 % 0 lf 1008,4 hPa 0,0 l/m 0 min 0 min 0 W/m 14,6 km/h (3 Bft) 93,62 %
17.11.2016 02:50 10,7 C 10,6 C 8,9 C 91 % 0 lf 1008,3 hPa 0,0 l/m 0 min 0 min 0 W/m 18,8 km/h (3 Bft) 93,62 %
17.11.2016 02:52 10,7 C 10,6 C 8,9 C 91 % 0 lf 1008,3 hPa 0,0 l/m 0 min 0 min 0 W/m 25,1 km/h (4 Bft) 95,74 %
17.11.2016 02:54 10,7 C 10,6 C 8,9 C 91 % 0 lf 1008,3 hPa 0,0 l/m 0 min 0 min 0 W/m 29,3 km/h (5 Bft) 91,49 %
17.11.2016 02:56 10,7 C 10,6 C 8,9 C 91 % 0 lf 1008,2 hPa 0,0 l/m 0 min 0 min 0 W/m 20,9 km/h (4 Bft) 93,62 %
17.11.2016 02:58 10,7 C 10,6 C 8,9 C 91 % 0 lf 1008,2 hPa 0,0 l/m 0 min 0 min 0 W/m 25,1 km/h (4 Bft) 95,65 %
17.11.2016 03:00 10,7 C 10,6 C 8,9 C 91 % 0 lf 1008,1 hPa 0,0 l/m 0 min 0 min 0 W/m 23,0 km/h (4 Bft) 97,87 %
17.11.2016 03:02 10,7 C 10,6 C 9,4 C 91 % 0 lf 1008,2 hPa 0,0 l/m 0 min 0 min 0 W/m 25,1 km/h (4 Bft) 95,74 %
17.11.2016 03:04 10,7 C 10,6 C 9,4 C 92 % 0 lf 1008,1 hPa 0,0 l/m 0 min 0 min 0 W/m 23,0 km/h (4 Bft) 93,62 %
17.11.2016 03:06 10,7 C 10,6 C 8,9 C 92 % 0 lf 1008,1 hPa 0,0 l/m 0 min 0 min 0 W/m 18,8 km/h (3 Bft) 97,87 %
17.11.2016 03:08 10,7 C 10,6 C 8,9 C 92 % 0 lf 1008,0 hPa 0,0 l/m 0 min 0 min 0 W/m 23,0 km/h (4 Bft) 89,36 %
17.11.2016 03:10 10,7 C 10,6 C 8,9 C 92 % 0 lf 1008,0 hPa 0,0 l/m 0 min 0 min 0 W/m 23,0 km/h (4 Bft) 93,48 %
17.11.2016 03:12 10,7 C 10,6 C 9,4 C 92 % 0 lf 1007,9 hPa 0,0 l/m 0 min 0 min 0 W/m 23,0 km/h (4 Bft) 97,87 %
17.11.2016 03:14 10,7 C 10,6 C 9,4 C 92 % 0 lf 1007,9 hPa 0,0 l/m 0 min 0 min 0 W/m 18,8 km/h (3 Bft) 100,00 %
17.11.2016 03:16 10,7 C 10,6 C 8,9 C 92 % 0 lf 1007,8 hPa 0,0 l/m 0 min 0 min 0 W/m 20,9 km/h (4 Bft) 93,62 %
17.11.2016 03:18 10,7 C 10,6 C 8,9 C 92 % 0 lf 1007,9 hPa 0,0 l/m 0 min 0 min 0 W/m 27,2 km/h (4 Bft) 100,00 %
17.11.2016 03:20 10,7 C 10,6 C 9,4 C 92 % 0 lf 1007,9 hPa 0,0 l/m 0 min 0 min 0 W/m 25,1 km/h (4 Bft) 100,00 %
17.11.2016 03:22 10,7 C 10,6 C 9,4 C 92 % 0 lf 1007,8 hPa 0,0 l/m 0 min 0 min 0 W/m 27,2 km/h (4 Bft) 97,87 %
17.11.2016 03:24 10,7 C 10,6 C 9,4 C 92 % 0 lf 1007,8 hPa 0,0 l/m 0 min 0 min 0 W/m 27,2 km/h (4 Bft) 95,74 %
17.11.2016 03:26 10,7 C 10,6 C 9,4 C 92 % 0 lf 1007,9 hPa 0,0 l/m 0 min 0 min 0 W/m 20,9 km/h (4 Bft) 95,74 %
17.11.2016 03:28 10,7 C 10,6 C 9,4 C 92 % 0 lf 1007,8 hPa 0,0 l/m 0 min 0 min 0 W/m 23,0 km/h (4 Bft) 95,74 %
17.11.2016 03:30 10,7 C 10,6 C 9,4 C 92 % 0 lf 1007,8 hPa 0,0 l/m 0 min 0 min 0 W/m 25,1 km/h (4 Bft) 100,00 %
17.11.2016 03:32 10,7 C 10,6 C 9,4 C 92 % 0 lf 1007,7 hPa 0,0 l/m 0 min 0 min 0 W/m 31,4 km/h (5 Bft) 100,00 %
17.11.2016 03:34 10,7 C 10,6 C 8,9 C 92 % 0 lf 1007,7 hPa 0,0 l/m 0 min 0 min 0 W/m 29,3 km/h (5 Bft) 100,00 %
17.11.2016 03:36 10,7 C 10,6 C 9,4 C 92 % 0 lf 1007,6 hPa 0,0 l/m 0 min 0 min 0 W/m 23,0 km/h (4 Bft) 97,87 %
17.11.2016 03:38 10,7 C 10,6 C 8,9 C 91 % 0 lf 1007,6 hPa 0,0 l/m 0 min 0 min 0 W/m 20,9 km/h (4 Bft) 95,74 %
17.11.2016 03:40 10,7 C 10,6 C 8,9 C 91 % 0 lf 1007,6 hPa 0,0 l/m 0 min 0 min 0 W/m 33,5 km/h (5 Bft) 100,00 %
17.11.2016 03:42 10,7 C 10,6 C 8,9 C 91 % 0 lf 1007,5 hPa 0,0 l/m 0 min 0 min 0 W/m 29,3 km/h (5 Bft) 97,87 %
17.11.2016 03:44 10,7 C 10,6 C 8,9 C 91 % 0 lf 1007,3 hPa 0,0 l/m 0 min 0 min 0 W/m 25,1 km/h (4 Bft) 91,30 %
17.11.2016 03:46 10,7 C 10,6 C 8,9 C 91 % 0 lf 1007,3 hPa 0,0 l/m 0 min 0 min 0 W/m 23,0 km/h (4 Bft) 95,74 %
17.11.2016 03:48 10,7 C 10,6 C 8,9 C 91 % 0 lf 1007,3 hPa 0,0 l/m 0 min 0 min 0 W/m 25,1 km/h (4 Bft) 95,74 %
17.11.2016 03:50 10,6 C 10,6 C 8,9 C 91 % 0 lf 1007,3 hPa 0,0 l/m 0 min 0 min 0 W/m 16,7 km/h (3 Bft) 97,87 %
17.11.2016 03:52 10,6 C 10,6 C 8,9 C 91 % 0 lf 1007,2 hPa 0,0 l/m 0 min 0 min 0 W/m 12,6 km/h (3 Bft) 97,87 %
17.11.2016 03:54 10,6 C 10,6 C 8,9 C 91 % 0 lf 1007,2 hPa 0,0 l/m 0 min 0 min 0 W/m 25,1 km/h (4 Bft) 97,87 %
17.11.2016 03:56 10,6 C 10,6 C 8,9 C 91 % 0 lf 1007,2 hPa 0,0 l/m 0 min 0 min 0 W/m 16,7 km/h (3 Bft) 97,83 %
17.11.2016 03:58 10,6 C 10,6 C 8,9 C 91 % 0 lf 1007,2 hPa 0,0 l/m 0 min 0 min 0 W/m 18,8 km/h (3 Bft) 93,62 %
17.11.2016 04:00 10,6 C 10,6 C 8,9 C 91 % 0 lf 1007,2 hPa 0,0 l/m 0 min 0 min 0 W/m 16,7 km/h (3 Bft) 97,87 %
17.11.2016 04:02 10,6 C 10,6 C 8,9 C 91 % 0 lf 1007,1 hPa 0,0 l/m 0 min 0 min 0 W/m 16,7 km/h (3 Bft) 94,12 %
17.11.2016 04:04 10,6 C 10,6 C 8,9 C 91 % 0 lf 1007,1 hPa 0,0 l/m 0 min 0 min 0 W/m 18,8 km/h (3 Bft) 97,87 %
17.11.2016 04:06 10,6 C 10,6 C 8,9 C 91 % 0 lf 1007,0 hPa 0,0 l/m 0 min 0 min 0 W/m 16,7 km/h (3 Bft) 95,74 %
17.11.2016 04:08 10,6 C 10,6 C 8,9 C 91 % 0 lf 1006,9 hPa 0,0 l/m 0 min 0 min 0 W/m 12,6 km/h (3 Bft) 97,83 %
17.11.2016 04:10 10,6 C 10,6 C 8,9 C 91 % 0 lf 1007,0 hPa 0,0 l/m 0 min 0 min 0 W/m 12,6 km/h (3 Bft) 95,74 %
17.11.2016 04:12 10,6 C 10,6 C 8,9 C 91 % 0 lf 1007,0 hPa 0,0 l/m 0 min 0 min 0 W/m 23,0 km/h (4 Bft) 95,74 %
17.11.2016 04:14 10,6 C 10,6 C 8,9 C 91 % 0 lf 1006,9 hPa 0,0 l/m 0 min 0 min 0 W/m 14,6 km/h (3 Bft) 97,87 %
17.11.2016 04:16 10,6 C 10,6 C 9,4 C 91 % 0 lf 1006,8 hPa 0,0 l/m 0 min 0 min 0 W/m 33,5 km/h (5 Bft) 97,87 %
17.11.2016 04:18 10,6 C 10,6 C 9,4 C 91 % 0 lf 1006,9 hPa 0,0 l/m 0 min 0 min 0 W/m 23,0 km/h (4 Bft) 97,87 %
17.11.2016 04:20 10,6 C 10,6 C 9,4 C 91 % 0 lf 1006,8 hPa 0,0 l/m 0 min 0 min 0 W/m 18,8 km/h (3 Bft) 100,00 %
17.11.2016 04:22 10,6 C 10,6 C 9,4 C 91 % 0 lf 1006,8 hPa 0,0 l/m 0 min 0 min 0 W/m 16,7 km/h (3 Bft) 97,87 %
17.11.2016 04:24 10,6 C 10,6 C 9,4 C 91 % 0 lf 1006,7 hPa 0,0 l/m 0 min 0 min 0 W/m 14,6 km/h (3 Bft) 97,87 %
17.11.2016 04:26 10,6 C 10,6 C 9,4 C 91 % 0 lf 1006,7 hPa 0,0 l/m 0 min 0 min 0 W/m 12,6 km/h (3 Bft) 93,62 %
17.11.2016 04:28 10,6 C 10,6 C 9,4 C 91 % 0 lf 1006,7 hPa 0,0 l/m 0 min 0 min 0 W/m 20,9 km/h (4 Bft) 95,74 %
17.11.2016 04:30 10,7 C 10,6 C 8,9 C 91 % 0 lf 1006,7 hPa 0,0 l/m 0 min 0 min 0 W/m 10,5 km/h (2 Bft) 97,87 %
17.11.2016 04:32 10,7 C 10,6 C 8,9 C 91 % 3 lf 1006,7 hPa 0,0 l/m 0 min 2 min 0 W/m 20,9 km/h (4 Bft) 95,65 %
17.11.2016 04:34 10,7 C 10,0 C 8,9 C 91 % 9 lf 1006,7 hPa 0,0 l/m 0 min 2 min 0 W/m 25,1 km/h (4 Bft) 97,87 %
17.11.2016 04:36 10,7 C 10,0 C 8,9 C 91 % 14 lf 1006,7 hPa 0,0 l/m 0 min 2 min 0 W/m 16,7 km/h (3 Bft) 97,87 %
17.11.2016 04:38 10,7 C 10,0 C 8,3 C 92 % 15 lf 1006,6 hPa 0,0 l/m 0 min 2 min 0 W/m 10,5 km/h (2 Bft) 97,87 %
17.11.2016 04:40 10,7 C 10,0 C 8,3 C 92 % 15 lf 1006,6 hPa 0,0 l/m 0 min 2 min 0 W/m 31,4 km/h (5 Bft) 93,62 %
17.11.2016 04:42 10,7 C 10,0 C 8,3 C 92 % 15 lf 1006,6 hPa 0,0 l/m 0 min 2 min 0 W/m 25,1 km/h (4 Bft) 97,83 %
17.11.2016 04:44 10,7 C 10,0 C 8,3 C 92 % 15 lf 1006,6 hPa 0,0 l/m 0 min 2 min 0 W/m 31,4 km/h (5 Bft) 97,87 %
17.11.2016 04:46 10,7 C 10,0 C 8,3 C 92 % 15 lf 1006,7 hPa 0,0 l/m 0 min 2 min 0 W/m 25,1 km/h (4 Bft) 91,49 %
17.11.2016 04:48 10,7 C 10,0 C 8,3 C 92 % 15 lf 1006,6 hPa 0,0 l/m 0 min 2 min 0 W/m 20,9 km/h (4 Bft) 97,87 %
17.11.2016 04:50 10,7 C 10,0 C 8,3 C 92 % 15 lf 1006,6 hPa 0,0 l/m 0 min 2 min 0 W/m 23,0 km/h (4 Bft) 97,87 %
17.11.2016 04:52 10,7 C 10,0 C 8,9 C 92 % 15 lf 1006,5 hPa 0,0 l/m 0 min 2 min 0 W/m 31,4 km/h (5 Bft) 95,74 %
17.11.2016 04:54 10,7 C 10,0 C 8,9 C 93 % 15 lf 1006,5 hPa 0,0 l/m 0 min 2 min 0 W/m 25,1 km/h (4 Bft) 93,48 %
17.11.2016 04:56 10,7 C 10,0 C 8,9 C 92 % 15 lf 1006,5 hPa 0,0 l/m 0 min 2 min 0 W/m 27,2 km/h (4 Bft) 97,87 %
17.11.2016 04:58 10,7 C 10,0 C 8,9 C 93 % 15 lf 1006,4 hPa 0,2 l/m 0 min 2 min 0 W/m 18,8 km/h (3 Bft) 97,87 %
17.11.2016 05:00 10,7 C 10,0 C 8,3 C 93 % 15 lf 1006,4 hPa 0,0 l/m 0 min 2 min 0 W/m 25,1 km/h (4 Bft) 93,62 %
17.11.2016 05:02 10,7 C 10,0 C 8,3 C 93 % 15 lf 1006,4 hPa 0,0 l/m 0 min 2 min 0 W/m 23,0 km/h (4 Bft) 93,62 %
17.11.2016 05:04 10,7 C 10,0 C 8,3 C 93 % 15 lf 1006,4 hPa 0,0 l/m 0 min 2 min 0 W/m 20,9 km/h (4 Bft) 93,62 %
17.11.2016 05:06 10,6 C 10,0 C 8,3 C 93 % 15 lf 1006,4 hPa 0,0 l/m 0 min 2 min 0 W/m 31,4 km/h (5 Bft) 95,65 %
17.11.2016 05:08 10,6 C 10,0 C 8,3 C 94 % 15 lf 1006,4 hPa 0,0 l/m 0 min 2 min 0 W/m 33,5 km/h (5 Bft) 95,74 %
17.11.2016 05:10 10,6 C 10,0 C 8,3 C 94 % 15 lf 1006,3 hPa 0,0 l/m 0 min 2 min 0 W/m 27,2 km/h (4 Bft) 95,74 %
17.11.2016 05:12 10,6 C 10,0 C 8,9 C 94 % 15 lf 1006,3 hPa 0,0 l/m 0 min 2 min 0 W/m 33,5 km/h (5 Bft) 93,62 %
17.11.2016 05:14 10,6 C 10,0 C 8,9 C 94 % 15 lf 1006,4 hPa 0,0 l/m 0 min 2 min 0 W/m 16,7 km/h (3 Bft) 93,62 %
17.11.2016 05:16 10,6 C 10,0 C 8,9 C 94 % 15 lf 1006,3 hPa 0,2 l/m 0 min 2 min 0 W/m 29,3 km/h (5 Bft) 95,74 %
17.11.2016 05:18 10,6 C 10,0 C 8,9 C 94 % 15 lf 1006,4 hPa 0,0 l/m 0 min 2 min 0 W/m 25,1 km/h (4 Bft) 93,48 %
17.11.2016 05:20 10,5 C 10,0 C 8,9 C 94 % 15 lf 1006,4 hPa 0,0 l/m 0 min 2 min 0 W/m 20,9 km/h (4 Bft) 95,74 %
17.11.2016 05:22 10,5 C 10,0 C 8,9 C 94 % 15 lf 1006,3 hPa 0,0 l/m 0 min 2 min 0 W/m 29,3 km/h (5 Bft) 93,62 %
17.11.2016 05:24 10,5 C 10,0 C 8,9 C 94 % 15 lf 1006,4 hPa 0,0 l/m 0 min 2 min 0 W/m 23,0 km/h (4 Bft) 95,74 %
17.11.2016 05:26 10,5 C 10,0 C 8,9 C 94 % 15 lf 1006,4 hPa 0,2 l/m 0 min 2 min 0 W/m 27,2 km/h (4 Bft) 95,74 %
17.11.2016 05:28 10,4 C 10,0 C 8,9 C 95 % 15 lf 1006,4 hPa 0,0 l/m 0 min 2 min 0 W/m 27,2 km/h (4 Bft) 93,62 %
17.11.2016 05:30 10,4 C 10,0 C 8,9 C 95 % 15 lf 1006,5 hPa 0,2 l/m 0 min 2 min 0 W/m 31,4 km/h (5 Bft) 95,65 %
17.11.2016 05:32 10,4 C 9,4 C 8,3 C 95 % 15 lf 1006,5 hPa 0,0 l/m 0 min 2 min 0 W/m 39,7 km/h (6 Bft) 93,62 %
17.11.2016 05:34 10,4 C 9,4 C 8,3 C 95 % 15 lf 1006,5 hPa 0,0 l/m 0 min 2 min 0 W/m 29,3 km/h (5 Bft) 89,36 %
17.11.2016 05:36 10,3 C 9,4 C 8,3 C 95 % 15 lf 1006,5 hPa 0,0 l/m 0 min 2 min 0 W/m 35,6 km/h (5 Bft) 91,49 %
17.11.2016 05:38 10,3 C 9,4 C 8,3 C 95 % 15 lf 1006,4 hPa 0,0 l/m 0 min 2 min 0 W/m 18,8 km/h (3 Bft) 93,62 %
17.11.2016 05:40 10,3 C 9,4 C 8,3 C 95 % 15 lf 1006,3 hPa 0,0 l/m 0 min 2 min 0 W/m 18,8 km/h (3 Bft) 95,65 %
17.11.2016 05:42 10,3 C 9,4 C 8,3 C 95 % 15 lf 1006,3 hPa 0,0 l/m 0 min 2 min 0 W/m 27,2 km/h (4 Bft) 91,49 %
17.11.2016 05:44 10,2 C 9,4 C 8,3 C 95 % 15 lf 1006,3 hPa 0,0 l/m 0 min 0 min 0 W/m 29,3 km/h (5 Bft) 95,74 %
17.11.2016 05:46 10,2 C 9,4 C 8,3 C 95 % 15 lf 1006,4 hPa 0,0 l/m 0 min 0 min 0 W/m 25,1 km/h (4 Bft) 91,49 %
17.11.2016 05:48 10,2 C 9,4 C 8,3 C 95 % 15 lf 1006,3 hPa 0,0 l/m 0 min 0 min 0 W/m 27,2 km/h (4 Bft) 91,49 %
17.11.2016 05:50 10,1 C 9,4 C 8,3 C 95 % 15 lf 1006,3 hPa 0,0 l/m 0 min 0 min 0 W/m 20,9 km/h (4 Bft) 93,62 %
17.11.2016 05:52 10,1 C 9,4 C 8,3 C 95 % 15 lf 1006,3 hPa 0,0 l/m 0 min 0 min 0 W/m 25,1 km/h (4 Bft) 95,65 %
17.11.2016 05:54 10,0 C 9,4 C 7,8 C 95 % 15 lf 1006,3 hPa 0,0 l/m 0 min 2 min 0 W/m 20,9 km/h (4 Bft) 93,62 %
17.11.2016 05:56 9,9 C 9,4 C 7,8 C 95 % 15 lf 1006,3 hPa 0,0 l/m 0 min 0 min 0 W/m 29,3 km/h (5 Bft) 95,74 %
17.11.2016 05:58 9,9 C 9,4 C 7,8 C 95 % 15 lf 1006,2 hPa 0,0 l/m 0 min 0 min 0 W/m 20,9 km/h (4 Bft) 95,74 %
17.11.2016 06:00 9,9 C 9,4 C 7,8 C 95 % 15 lf 1006,2 hPa 0,0 l/m 0 min 2 min 0 W/m 25,1 km/h (4 Bft) 93,62 %
17.11.2016 06:02 9,8 C 9,4 C 7,8 C 95 % 15 lf 1006,2 hPa 0,0 l/m 0 min 0 min 0 W/m 27,2 km/h (4 Bft) 95,74 %
17.11.2016 06:06 9,8 C 8,9 C 7,8 C 95 % 15 lf 1006,3 hPa 0,0 l/m 0 min 2 min 0 W/m 29,3 km/h (5 Bft) 94,68 %
17.11.2016 06:08 9,7 C 8,9 C 7,8 C 95 % 15 lf 1006,2 hPa 0,0 l/m 0 min 0 min 0 W/m 18,8 km/h (3 Bft) 95,74 %
17.11.2016 06:10 9,7 C 8,9 C 7,8 C 95 % 15 lf 1006,3 hPa 0,0 l/m 0 min 0 min 0 W/m 20,9 km/h (4 Bft) 93,62 %
17.11.2016 06:12 9,7 C 8,9 C 7,8 C 95 % 15 lf 1006,3 hPa 0,0 l/m 0 min 0 min 0 W/m 20,9 km/h (4 Bft) 95,74 %
17.11.2016 06:14 9,6 C 8,9 C 7,8 C 95 % 15 lf 1006,3 hPa 0,0 l/m 0 min 0 min 0 W/m 25,1 km/h (4 Bft) 97,87 %
17.11.2016 06:16 9,6 C 8,9 C 7,8 C 95 % 15 lf 1006,4 hPa 0,0 l/m 0 min 0 min 0 W/m 23,0 km/h (4 Bft) 100,00 %
17.11.2016 06:18 9,6 C 8,9 C 7,8 C 95 % 15 lf 1006,4 hPa 0,0 l/m 0 min 0 min 0 W/m 27,2 km/h (4 Bft) 97,87 %
17.11.2016 06:20 9,5 C 8,9 C 7,8 C 95 % 15 lf 1006,4 hPa 0,0 l/m 0 min 0 min 0 W/m 16,7 km/h (3 Bft) 100,00 %
17.11.2016 06:22 9,5 C 8,9 C 7,2 C 95 % 15 lf 1006,4 hPa 0,0 l/m 0 min 0 min 0 W/m 16,7 km/h (3 Bft) 91,49 %
17.11.2016 06:24 9,4 C 8,9 C 7,2 C 95 % 15 lf 1006,4 hPa 0,0 l/m 0 min 0 min 0 W/m 20,9 km/h (4 Bft) 100,00 %
17.11.2016 06:26 9,4 C 8,3 C 7,2 C 95 % 15 lf 1006,4 hPa 0,0 l/m 0 min 0 min 0 W/m 18,8 km/h (3 Bft) 100,00 %
17.11.2016 06:28 9,4 C 8,3 C 7,2 C 95 % 15 lf 1006,4 hPa 0,0 l/m 0 min 0 min 0 W/m 25,1 km/h (4 Bft) 95,65 %
17.11.2016 06:30 9,3 C 8,3 C 7,2 C 95 % 15 lf 1006,4 hPa 0,0 l/m 0 min 0 min 0 W/m 23,0 km/h (4 Bft) 95,74 %
17.11.2016 06:32 9,3 C 8,3 C 7,2 C 95 % 15 lf 1006,5 hPa 0,0 l/m 0 min 0 min 0 W/m 25,1 km/h (4 Bft) 93,62 %
17.11.2016 06:34 9,3 C 8,9 C 7,2 C 95 % 15 lf 1006,5 hPa 0,0 l/m 0 min 0 min 0 W/m 14,6 km/h (3 Bft) 93,62 %
17.11.2016 06:36 9,3 C 8,3 C 7,2 C 95 % 15 lf 1006,5 hPa 0,0 l/m 0 min 0 min 0 W/m 18,8 km/h (3 Bft) 93,62 %
17.11.2016 06:38 9,3 C 8,3 C 7,2 C 95 % 15 lf 1006,6 hPa 0,0 l/m 0 min 0 min 0 W/m 18,8 km/h (3 Bft) 95,74 %
17.11.2016 06:40 9,2 C 8,9 C 7,2 C 95 % 15 lf 1006,6 hPa 0,0 l/m 0 min 0 min 0 W/m 25,1 km/h (4 Bft) 93,48 %
17.11.2016 06:42 9,2 C 8,3 C 7,2 C 95 % 15 lf 1006,6 hPa 0,0 l/m 0 min 0 min 0 W/m 18,8 km/h (3 Bft) 96,08 %
17.11.2016 06:44 9,2 C 8,3 C 7,2 C 95 % 15 lf 1006,6 hPa 0,0 l/m 0 min 0 min 0 W/m 16,7 km/h (3 Bft) 89,13 %
17.11.2016 06:46 9,2 C 8,3 C 7,2 C 95 % 15 lf 1006,6 hPa 0,0 l/m 0 min 0 min 0 W/m 14,6 km/h (3 Bft) 95,74 %
17.11.2016 06:48 9,2 C 8,3 C 7,2 C 95 % 15 lf 1006,6 hPa 0,0 l/m 0 min 0 min 0 W/m 18,8 km/h (3 Bft) 95,74 %
17.11.2016 06:50 9,2 C 8,3 C 7,2 C 95 % 15 lf 1006,6 hPa 0,0 l/m 0 min 0 min 0 W/m 16,7 km/h (3 Bft) 95,74 %
17.11.2016 06:52 9,2 C 8,3 C 7,2 C 95 % 15 lf 1006,5 hPa 0,0 l/m 0 min 0 min 0 W/m 20,9 km/h (4 Bft) 93,62 %
17.11.2016 06:54 9,2 C 8,9 C 7,2 C 95 % 15 lf 1006,4 hPa 0,0 l/m 0 min 0 min 0 W/m 18,8 km/h (3 Bft) 95,74 %
17.11.2016 06:56 9,2 C 8,9 C 7,2 C 95 % 15 lf 1006,4 hPa 0,0 l/m 0 min 0 min 0 W/m 16,7 km/h (3 Bft) 95,65 %
17.11.2016 06:58 9,2 C 8,9 C 7,2 C 95 % 15 lf 1006,4 hPa 0,0 l/m 0 min 0 min 0 W/m 16,7 km/h (3 Bft) 95,74 %
17.11.2016 07:00 9,2 C 8,9 C 7,2 C 95 % 15 lf 1006,4 hPa 0,0 l/m 0 min 0 min 0 W/m 16,7 km/h (3 Bft) 95,74 %
17.11.2016 07:02 9,2 C 8,9 C 7,2 C 96 % 15 lf 1006,4 hPa 0,0 l/m 0 min 0 min 0 W/m 23,0 km/h (4 Bft) 93,62 %
17.11.2016 07:04 9,2 C 8,9 C 7,2 C 96 % 15 lf 1006,4 hPa 0,0 l/m 0 min 0 min 0 W/m 23,0 km/h (4 Bft) 97,87 %
17.11.2016 07:06 9,2 C 8,9 C 7,2 C 96 % 15 lf 1006,4 hPa 0,0 l/m 0 min 0 min 0 W/m 20,9 km/h (4 Bft) 95,74 %
17.11.2016 07:08 9,2 C 8,9 C 7,2 C 96 % 15 lf 1006,4 hPa 0,0 l/m 0 min 0 min 0 W/m 14,6 km/h (3 Bft) 97,83 %
17.11.2016 07:10 9,2 C 8,9 C 7,2 C 96 % 15 lf 1006,4 hPa 0,0 l/m 0 min 0 min 0 W/m 16,7 km/h (3 Bft) 97,87 %
17.11.2016 07:12 9,2 C 8,9 C 7,2 C 96 % 15 lf 1006,4 hPa 0,0 l/m 0 min 0 min 0 W/m 23,0 km/h (4 Bft) 95,74 %
17.11.2016 07:14 9,3 C 8,9 C 7,2 C 96 % 15 lf 1006,3 hPa 0,0 l/m 0 min 0 min 0 W/m 20,9 km/h (4 Bft) 95,74 %
17.11.2016 07:16 9,3 C 8,9 C 7,2 C 96 % 15 lf 1006,3 hPa 0,0 l/m 0 min 0 min 0 W/m 27,2 km/h (4 Bft) 100,00 %
17.11.2016 07:18 9,3 C 8,9 C 7,2 C 96 % 15 lf 1006,3 hPa 0,0 l/m 0 min 0 min 0 W/m 31,4 km/h (5 Bft) 97,87 %
17.11.2016 07:20 9,3 C 8,9 C 7,2 C 96 % 15 lf 1006,3 hPa 0,0 l/m 0 min 0 min 0 W/m 29,3 km/h (5 Bft) 100,00 %
17.11.2016 07:22 9,3 C 8,9 C 7,8 C 96 % 15 lf 1006,2 hPa 0,0 l/m 0 min 0 min 0 W/m 23,0 km/h (4 Bft) 100,00 %
17.11.2016 07:24 9,3 C 8,9 C 7,8 C 96 % 15 lf 1006,2 hPa 0,0 l/m 0 min 0 min 0 W/m 25,1 km/h (4 Bft) 100,00 %
17.11.2016 07:26 9,3 C 9,4 C 7,8 C 96 % 15 lf 1006,3 hPa 0,0 l/m 0 min 0 min 0 W/m 23,0 km/h (4 Bft) 100,00 %
17.11.2016 07:28 9,3 C 9,4 C 7,8 C 96 % 15 lf 1006,2 hPa 0,0 l/m 0 min 0 min 0 W/m 27,2 km/h (4 Bft) 93,62 %
17.11.2016 07:30 9,3 C 9,4 C 7,8 C 96 % 15 lf 1006,2 hPa 0,0 l/m 0 min 0 min 0 W/m 27,2 km/h (4 Bft) 100,00 %
17.11.2016 07:32 9,4 C 9,4 C 7,8 C 96 % 15 lf 1006,1 hPa 0,0 l/m 0 min 0 min 0 W/m 25,1 km/h (4 Bft) 100,00 %
17.11.2016 07:34 9,4 C 9,4 C 7,8 C 96 % 15 lf 1006,2 hPa 0,0 l/m 0 min 0 min 0 W/m 27,2 km/h (4 Bft) 100,00 %
17.11.2016 07:36 9,4 C 9,4 C 7,8 C 96 % 15 lf 1006,2 hPa 0,0 l/m 0 min 0 min 0 W/m 18,8 km/h (3 Bft) 95,74 %
17.11.2016 07:38 9,4 C 9,4 C 7,8 C 96 % 15 lf 1006,2 hPa 0,0 l/m 0 min 0 min 0 W/m 18,8 km/h (3 Bft) 97,87 %
17.11.2016 07:40 9,4 C 9,4 C 7,8 C 96 % 15 lf 1006,2 hPa 0,0 l/m 0 min 0 min 0 W/m 18,8 km/h (3 Bft) 97,87 %
17.11.2016 07:42 9,4 C 9,4 C 7,8 C 96 % 14 lf 1006,2 hPa 0,0 l/m 0 min 0 min 0 W/m 18,8 km/h (3 Bft) 100,00 %
17.11.2016 07:44 9,4 C 9,4 C 7,8 C 96 % 14 lf 1006,2 hPa 0,0 l/m 0 min 0 min 0 W/m 20,9 km/h (4 Bft) 95,74 %
17.11.2016 07:46 9,4 C 9,4 C 7,8 C 96 % 14 lf 1006,2 hPa 0,0 l/m 0 min 0 min 0 W/m 18,8 km/h (3 Bft) 97,87 %
17.11.2016 07:48 9,4 C 9,4 C 7,8 C 96 % 13 lf 1006,3 hPa 0,0 l/m 0 min 0 min 0 W/m 14,6 km/h (3 Bft) 100,00 %
17.11.2016 07:50 9,4 C 9,4 C 7,8 C 96 % 13 lf 1006,3 hPa 0,0 l/m 0 min 0 min 0 W/m 16,7 km/h (3 Bft) 97,87 %
17.11.2016 07:52 9,4 C 9,4 C 7,8 C 96 % 13 lf 1006,3 hPa 0,0 l/m 0 min 0 min 1 W/m 20,9 km/h (4 Bft) 95,74 %
17.11.2016 07:54 9,4 C 9,4 C 7,8 C 96 % 12 lf 1006,3 hPa 0,0 l/m 0 min 0 min 5 W/m 18,8 km/h (3 Bft) 100,00 %
17.11.2016 07:56 9,4 C 9,4 C 7,8 C 96 % 11 lf 1006,2 hPa 0,0 l/m 0 min 0 min 5 W/m 12,6 km/h (3 Bft) 100,00 %
17.11.2016 07:58 9,4 C 8,9 C 7,8 C 96 % 11 lf 1006,2 hPa 0,0 l/m 0 min 0 min 5 W/m 14,6 km/h (3 Bft) 100,00 %
17.11.2016 08:00 9,4 C 9,4 C 7,8 C 96 % 10 lf 1006,2 hPa 0,0 l/m 0 min 0 min 5 W/m 16,7 km/h (3 Bft) 97,87 %
17.11.2016 08:02 9,4 C 9,4 C 7,8 C 96 % 10 lf 1006,2 hPa 0,0 l/m 0 min 0 min 5 W/m 14,6 km/h (3 Bft) 100,00 %
17.11.2016 08:04 9,4 C 9,4 C 7,8 C 96 % 9 lf 1006,3 hPa 0,0 l/m 0 min 0 min 6 W/m 16,7 km/h (3 Bft) 95,74 %
17.11.2016 08:06 9,4 C 9,4 C 7,8 C 96 % 8 lf 1006,2 hPa 0,0 l/m 0 min 0 min 7 W/m 14,6 km/h (3 Bft) 95,65 %
17.11.2016 08:08 9,4 C 9,4 C 7,8 C 96 % 8 lf 1006,4 hPa 0,0 l/m 0 min 0 min 7 W/m 12,6 km/h (3 Bft) 95,74 %
17.11.2016 08:10 9,4 C 9,4 C 7,8 C 96 % 7 lf 1006,3 hPa 0,0 l/m 0 min 0 min 8 W/m 14,6 km/h (3 Bft) 95,74 %
17.11.2016 08:12 9,4 C 9,4 C 7,8 C 96 % 6 lf 1006,3 hPa 0,0 l/m 0 min 0 min 9 W/m 16,7 km/h (3 Bft) 95,74 %
17.11.2016 08:14 9,4 C 9,4 C 7,8 C 96 % 5 lf 1006,2 hPa 0,0 l/m 0 min 0 min 11 W/m 20,9 km/h (4 Bft) 95,74 %
17.11.2016 08:16 9,4 C 9,4 C 7,8 C 96 % 4 lf 1006,3 hPa 0,0 l/m 0 min 0 min 11 W/m 20,9 km/h (4 Bft) 97,87 %
17.11.2016 08:18 9,4 C 9,4 C 7,8 C 96 % 4 lf 1006,3 hPa 0,0 l/m 0 min 0 min 12 W/m 18,8 km/h (3 Bft) 97,83 %
17.11.2016 08:20 9,4 C 9,4 C 7,8 C 96 % 4 lf 1006,3 hPa 0,0 l/m 0 min 0 min 12 W/m 14,6 km/h (3 Bft) 93,62 %
17.11.2016 08:22 9,5 C 9,4 C 7,8 C 96 % 3 lf 1006,3 hPa 0,0 l/m 0 min 0 min 12 W/m 23,0 km/h (4 Bft) 93,62 %
17.11.2016 08:24 9,5 C 9,4 C 7,8 C 96 % 3 lf 1006,3 hPa 0,0 l/m 0 min 0 min 12 W/m 23,0 km/h (4 Bft) 91,49 %
17.11.2016 08:26 9,5 C 9,4 C 7,8 C 96 % 3 lf 1006,3 hPa 0,0 l/m 0 min 2 min 13 W/m 16,7 km/h (3 Bft) 95,74 %
17.11.2016 08:28 9,5 C 9,4 C 7,8 C 96 % 3 lf 1006,3 hPa 0,0 l/m 0 min 2 min 14 W/m 20,9 km/h (4 Bft) 95,74 %
17.11.2016 08:30 9,5 C 9,4 C 7,8 C 96 % 2 lf 1006,3 hPa 0,0 l/m 0 min 2 min 14 W/m 18,8 km/h (3 Bft) 93,48 %
17.11.2016 08:32 9,5 C 9,4 C 7,8 C 96 % 2 lf 1006,2 hPa 0,0 l/m 0 min 2 min 16 W/m 14,6 km/h (3 Bft) 95,74 %
17.11.2016 08:34 9,5 C 9,4 C 7,8 C 96 % 1 lf 1006,2 hPa 0,0 l/m 0 min 0 min 16 W/m 20,9 km/h (4 Bft) 93,62 %
17.11.2016 08:36 9,5 C 9,4 C 7,8 C 96 % 0 lf 1006,2 hPa 0,0 l/m 0 min 0 min 16 W/m 23,0 km/h (4 Bft) 95,74 %
17.11.2016 08:38 9,5 C 9,4 C 7,8 C 96 % 0 lf 1006,2 hPa 0,0 l/m 0 min 0 min 14 W/m 16,7 km/h (3 Bft) 93,62 %
17.11.2016 08:40 9,5 C 9,4 C 7,8 C 96 % 1 lf 1006,2 hPa 0,0 l/m 0 min 2 min 15 W/m 25,1 km/h (4 Bft) 93,62 %
17.11.2016 08:42 9,5 C 9,4 C 7,8 C 96 % 3 lf 1006,1 hPa 0,0 l/m 0 min 2 min 20 W/m 14,6 km/h (3 Bft) 95,65 %
17.11.2016 08:44 9,5 C 9,4 C 7,8 C 96 % 6 lf 1006,0 hPa 0,0 l/m 0 min 2 min 24 W/m 23,0 km/h (4 Bft) 95,74 %
17.11.2016 08:46 9,5 C 9,4 C 7,8 C 96 % 9 lf 1006,1 hPa 0,0 l/m 0 min 2 min 27 W/m 20,9 km/h (4 Bft) 95,74 %
17.11.2016 08:48 9,5 C 9,4 C 7,8 C 96 % 8 lf 1006,1 hPa 0,0 l/m 0 min 2 min 29 W/m 20,9 km/h (4 Bft) 95,74 %
17.11.2016 08:50 9,5 C 9,4 C 7,8 C 96 % 7 lf 1006,1 hPa 0,0 l/m 0 min 0 min 32 W/m 20,9 km/h (4 Bft) 95,74 %
17.11.2016 08:52 9,5 C 9,4 C 7,8 C 95 % 5 lf 1006,2 hPa 0,0 l/m 0 min 0 min 37 W/m 18,8 km/h (3 Bft) 95,65 %
17.11.2016 08:54 9,5 C 9,4 C 7,8 C 95 % 4 lf 1006,2 hPa 0,0 l/m 0 min 0 min 39 W/m 20,9 km/h (4 Bft) 93,62 %
17.11.2016 08:56 9,5 C 9,4 C 7,8 C 95 % 3 lf 1006,2 hPa 0,0 l/m 0 min 0 min 40 W/m 18,8 km/h (3 Bft) 100,00 %
17.11.2016 08:58 9,5 C 9,4 C 7,8 C 95 % 3 lf 1006,1 hPa 0,0 l/m 0 min 0 min 41 W/m 20,9 km/h (4 Bft) 95,74 %
17.11.2016 09:00 9,5 C 9,4 C 7,8 C 95 % 2 lf 1006,1 hPa 0,0 l/m 0 min 0 min 37 W/m 18,8 km/h (3 Bft) 97,87 %
17.11.2016 09:02 9,5 C 9,4 C 7,8 C 95 % 1 lf 1006,1 hPa 0,0 l/m 0 min 0 min 33 W/m 35,6 km/h (5 Bft) 93,62 %
17.11.2016 09:04 9,5 C 9,4 C 7,8 C 95 % 1 lf 1006,2 hPa 0,0 l/m 0 min 0 min 31 W/m 29,3 km/h (5 Bft) 95,65 %
17.11.2016 09:06 9,5 C 9,4 C 7,8 C 95 % 0 lf 1006,2 hPa 0,0 l/m 0 min 0 min 31 W/m 29,3 km/h (5 Bft) 93,62 %
17.11.2016 09:08 9,5 C 9,4 C 7,8 C 95 % 0 lf 1006,1 hPa 0,0 l/m 0 min 0 min 26 W/m 16,7 km/h (3 Bft) 93,62 %
17.11.2016 09:10 9,5 C 9,4 C 7,8 C 95 % 0 lf 1006,1 hPa 0,0 l/m 0 min 0 min 21 W/m 20,9 km/h (4 Bft) 95,74 %
17.11.2016 09:12 9,5 C 9,4 C 7,8 C 95 % 0 lf 1006,1 hPa 0,0 l/m 0 min 0 min 19 W/m 20,9 km/h (4 Bft) 95,74 %
17.11.2016 09:14 9,5 C 9,4 C 7,8 C 95 % 0 lf 1006,2 hPa 0,0 l/m 0 min 0 min 16 W/m 18,8 km/h (3 Bft) 93,62 %
17.11.2016 09:16 9,4 C 9,4 C 7,8 C 94 % 0 lf 1006,2 hPa 0,0 l/m 0 min 0 min 15 W/m 23,0 km/h (4 Bft) 95,65 %
17.11.2016 09:18 9,4 C 9,4 C 7,8 C 94 % 0 lf 1006,2 hPa 0,0 l/m 0 min 0 min 19 W/m 23,0 km/h (4 Bft) 93,62 %
17.11.2016 09:20 9,4 C 10,0 C 7,8 C 94 % 0 lf 1006,2 hPa 0,0 l/m 0 min 0 min 26 W/m 20,9 km/h (4 Bft) 95,74 %
17.11.2016 09:22 9,4 C 10,0 C 7,8 C 94 % 0 lf 1006,2 hPa 0,0 l/m 0 min 0 min 30 W/m 16,7 km/h (3 Bft) 95,74 %
17.11.2016 09:24 9,4 C 10,0 C 7,8 C 94 % 0 lf 1006,2 hPa 0,0 l/m 0 min 0 min 32 W/m 20,9 km/h (4 Bft) 95,74 %
17.11.2016 09:26 9,4 C 10,0 C 7,8 C 94 % 0 lf 1006,2 hPa 0,0 l/m 0 min 0 min 34 W/m 20,9 km/h (4 Bft) 95,74 %
17.11.2016 09:28 9,4 C 10,0 C 7,8 C 94 % 0 lf 1006,3 hPa 0,0 l/m 0 min 0 min 32 W/m 23,0 km/h (4 Bft) 95,65 %
17.11.2016 09:30 9,4 C 10,0 C 7,8 C 94 % 0 lf 1006,2 hPa 0,0 l/m 0 min 0 min 33 W/m 23,0 km/h (4 Bft) 93,62 %
17.11.2016 09:32 9,4 C 10,0 C 7,8 C 94 % 0 lf 1006,1 hPa 0,0 l/m 0 min 0 min 36 W/m 25,1 km/h (4 Bft) 95,74 %
17.11.2016 09:34 9,4 C 10,0 C 7,8 C 94 % 1 lf 1006,2 hPa 0,0 l/m 0 min 2 min 41 W/m 20,9 km/h (4 Bft) 93,62 %
17.11.2016 09:36 9,4 C 10,0 C 7,8 C 93 % 3 lf 1006,1 hPa 0,0 l/m 0 min 2 min 41 W/m 18,8 km/h (3 Bft) 93,62 %
17.11.2016 09:38 9,4 C 10,0 C 7,8 C 93 % 4 lf 1006,0 hPa 0,0 l/m 0 min 2 min 42 W/m 18,8 km/h (3 Bft) 93,62 %
17.11.2016 09:40 9,4 C 9,4 C 7,8 C 93 % 6 lf 1006,0 hPa 0,0 l/m 0 min 2 min 43 W/m 20,9 km/h (4 Bft) 93,48 %
17.11.2016 09:42 9,4 C 9,4 C 7,8 C 93 % 10 lf 1006,0 hPa 0,0 l/m 0 min 2 min 49 W/m 23,0 km/h (4 Bft) 93,62 %
17.11.2016 09:44 9,4 C 9,4 C 7,8 C 93 % 12 lf 1006,0 hPa 0,0 l/m 0 min 2 min 60 W/m 14,6 km/h (3 Bft) 95,74 %
17.11.2016 09:46 9,5 C 9,4 C 7,8 C 93 % 12 lf 1006,1 hPa 0,0 l/m 0 min 2 min 53 W/m 23,0 km/h (4 Bft) 93,62 %
17.11.2016 09:48 9,5 C 9,4 C 7,8 C 93 % 14 lf 1006,1 hPa 0,2 l/m 0 min 2 min 40 W/m 16,7 km/h (3 Bft) 95,74 %
17.11.2016 09:50 9,6 C 8,9 C 7,8 C 93 % 14 lf 1006,2 hPa 0,0 l/m 0 min 2 min 34 W/m 14,6 km/h (3 Bft) 93,62 %
17.11.2016 09:52 9,6 C 8,9 C 7,8 C 93 % 15 lf 1006,1 hPa 0,0 l/m 0 min 2 min 38 W/m 14,6 km/h (3 Bft) 93,48 %
17.11.2016 09:54 9,6 C 8,9 C 7,8 C 93 % 15 lf 1006,1 hPa 0,0 l/m 0 min 2 min 40 W/m 10,5 km/h (2 Bft) 97,87 %
17.11.2016 09:56 9,6 C 9,4 C 7,8 C 93 % 15 lf 1006,1 hPa 0,0 l/m 0 min 2 min 40 W/m 16,7 km/h (3 Bft) 95,74 %
17.11.2016 09:58 9,6 C 8,9 C 7,8 C 93 % 15 lf 1006,0 hPa 0,0 l/m 0 min 2 min 43 W/m 16,7 km/h (3 Bft) 95,74 %
17.11.2016 10:00 9,6 C 9,4 C 7,8 C 93 % 15 lf 1006,0 hPa 0,0 l/m 0 min 2 min 37 W/m 18,8 km/h (3 Bft) 95,74 %
17.11.2016 10:02 9,6 C 9,4 C 7,8 C 94 % 15 lf 1006,0 hPa 0,0 l/m 0 min 2 min 39 W/m 18,8 km/h (3 Bft) 97,87 %
17.11.2016 10:04 9,6 C 9,4 C 7,8 C 94 % 15 lf 1006,1 hPa 0,0 l/m 0 min 2 min 43 W/m 23,0 km/h (4 Bft) 97,83 %
17.11.2016 10:06 9,7 C 9,4 C 7,8 C 94 % 15 lf 1006,2 hPa 0,0 l/m 0 min 2 min 42 W/m 16,7 km/h (3 Bft) 95,74 %
17.11.2016 10:08 9,7 C 9,4 C 7,8 C 94 % 15 lf 1006,3 hPa 0,0 l/m 0 min 2 min 37 W/m 16,7 km/h (3 Bft) 97,87 %
17.11.2016 10:10 9,7 C 9,4 C 7,8 C 94 % 15 lf 1006,2 hPa 0,0 l/m 0 min 2 min 42 W/m 14,6 km/h (3 Bft) 93,62 %
17.11.2016 10:12 9,7 C 9,4 C 7,8 C 94 % 15 lf 1006,2 hPa 0,0 l/m 0 min 2 min 49 W/m 18,8 km/h (3 Bft) 95,74 %
17.11.2016 10:14 9,7 C 9,4 C 8,3 C 94 % 15 lf 1006,2 hPa 0,2 l/m 0 min 2 min 53 W/m 18,8 km/h (3 Bft) 97,83 %
17.11.2016 10:16 9,7 C 9,4 C 8,3 C 94 % 15 lf 1006,2 hPa 0,0 l/m 0 min 2 min 55 W/m 23,0 km/h (4 Bft) 95,74 %
17.11.2016 10:18 9,6 C 8,9 C 7,8 C 94 % 15 lf 1006,1 hPa 0,0 l/m 0 min 2 min 48 W/m 20,9 km/h (4 Bft) 95,74 %
17.11.2016 10:20 9,6 C 8,9 C 7,8 C 94 % 15 lf 1006,1 hPa 0,0 l/m 0 min 2 min 46 W/m 20,9 km/h (4 Bft) 93,62 %
17.11.2016 10:22 9,6 C 8,9 C 7,8 C 94 % 15 lf 1006,2 hPa 0,0 l/m 0 min 2 min 38 W/m 27,2 km/h (4 Bft) 97,87 %
17.11.2016 10:24 9,6 C 8,9 C 7,8 C 95 % 15 lf 1006,2 hPa 0,0 l/m 0 min 2 min 37 W/m 16,7 km/h (3 Bft) 95,74 %
17.11.2016 10:26 9,6 C 8,9 C 7,8 C 95 % 15 lf 1006,3 hPa 0,0 l/m 0 min 2 min 37 W/m 20,9 km/h (4 Bft) 93,48 %
17.11.2016 10:28 9,6 C 8,9 C 7,8 C 94 % 15 lf 1006,2 hPa 0,0 l/m 0 min 2 min 43 W/m 18,8 km/h (3 Bft) 95,74 %
17.11.2016 10:30 9,5 C 8,9 C 7,8 C 94 % 15 lf 1006,2 hPa 0,0 l/m 0 min 2 min 43 W/m 18,8 km/h (3 Bft) 95,74 %
17.11.2016 10:32 9,5 C 8,9 C 7,8 C 95 % 15 lf 1006,1 hPa 0,0 l/m 0 min 2 min 43 W/m 20,9 km/h (4 Bft) 97,87 %
17.11.2016 10:34 9,4 C 8,9 C 7,8 C 95 % 15 lf 1006,1 hPa 0,2 l/m 0 min 2 min 42 W/m 23,0 km/h (4 Bft) 95,74 %
17.11.2016 10:36 9,4 C 8,9 C 7,8 C 95 % 15 lf 1006,0 hPa 0,0 l/m 0 min 2 min 38 W/m 23,0 km/h (4 Bft) 95,74 %
17.11.2016 10:38 9,4 C 8,3 C 7,8 C 94 % 15 lf 1006,1 hPa 0,0 l/m 0 min 2 min 41 W/m 29,3 km/h (5 Bft) 93,48 %
17.11.2016 10:40 9,3 C 8,9 C 7,8 C 95 % 15 lf 1006,1 hPa 0,0 l/m 0 min 2 min 52 W/m 16,7 km/h (3 Bft) 93,62 %
17.11.2016 10:42 9,3 C 8,9 C 7,8 C 95 % 15 lf 1006,0 hPa 0,0 l/m 0 min 2 min 64 W/m 20,9 km/h (4 Bft) 97,87 %
17.11.2016 10:44 9,3 C 8,3 C 7,8 C 95 % 15 lf 1006,0 hPa 0,0 l/m 0 min 2 min 60 W/m 27,2 km/h (4 Bft) 95,74 %
17.11.2016 10:46 9,2 C 8,9 C 7,8 C 95 % 15 lf 1005,9 hPa 0,0 l/m 0 min 2 min 59 W/m 23,0 km/h (4 Bft) 97,87 %
17.11.2016 10:48 9,2 C 8,9 C 7,8 C 95 % 15 lf 1006,0 hPa 0,0 l/m 0 min 2 min 68 W/m 27,2 km/h (4 Bft) 100,00 %
17.11.2016 10:50 9,2 C 8,9 C 7,8 C 95 % 15 lf 1005,7 hPa 0,0 l/m 0 min 0 min 119 W/m 29,3 km/h (5 Bft) 100,00 %
17.11.2016 10:52 9,2 C 9,4 C 8,3 C 95 % 15 lf 1005,7 hPa 0,0 l/m 2 min 0 min 173 W/m 20,9 km/h (4 Bft) 100,00 %
17.11.2016 10:54 9,2 C 9,4 C 7,8 C 95 % 15 lf 1005,7 hPa 0,0 l/m 0 min 0 min 134 W/m 27,2 km/h (4 Bft) 100,00 %
17.11.2016 10:56 9,2 C 9,4 C 7,8 C 95 % 15 lf 1005,8 hPa 0,0 l/m 0 min 0 min 114 W/m 25,1 km/h (4 Bft) 97,87 %
17.11.2016 10:58 9,2 C 9,4 C 8,3 C 95 % 15 lf 1005,9 hPa 0,0 l/m 0 min 0 min 131 W/m 31,4 km/h (5 Bft) 95,74 %
17.11.2016 11:00 9,2 C 9,4 C 8,3 C 95 % 15 lf 1005,9 hPa 0,0 l/m 0 min 0 min 123 W/m 18,8 km/h (3 Bft) 97,87 %
17.11.2016 11:02 9,3 C 9,4 C 8,3 C 95 % 15 lf 1005,9 hPa 0,0 l/m 0 min 0 min 110 W/m 16,7 km/h (3 Bft) 97,83 %
17.11.2016 11:04 9,3 C 9,4 C 8,3 C 95 % 15 lf 1005,8 hPa 0,0 l/m 0 min 0 min 105 W/m 18,8 km/h (3 Bft) 100,00 %
17.11.2016 11:06 9,3 C 9,4 C 8,3 C 95 % 15 lf 1005,7 hPa 0,0 l/m 0 min 0 min 105 W/m 12,6 km/h (3 Bft) 97,87 %
17.11.2016 11:08 9,3 C 9,4 C 8,3 C 95 % 15 lf 1005,7 hPa 0,0 l/m 0 min 0 min 129 W/m 14,6 km/h (3 Bft) 95,74 %
17.11.2016 11:10 9,3 C 9,4 C 8,9 C 95 % 15 lf 1005,7 hPa 0,0 l/m 0 min 0 min 128 W/m 16,7 km/h (3 Bft) 97,87 %
17.11.2016 11:12 9,4 C 9,4 C 8,9 C 95 % 15 lf 1005,7 hPa 0,0 l/m 0 min 0 min 131 W/m 16,7 km/h (3 Bft) 97,87 %
17.11.2016 11:14 9,4 C 10,0 C 8,9 C 95 % 15 lf 1005,7 hPa 0,0 l/m 0 min 0 min 140 W/m 12,6 km/h (3 Bft) 97,83 %
17.11.2016 11:16 9,4 C 10,0 C 8,9 C 95 % 15 lf 1005,8 hPa 0,0 l/m 0 min 0 min 136 W/m 14,6 km/h (3 Bft) 95,74 %
17.11.2016 11:18 9,4 C 10,0 C 8,9 C 95 % 15 lf 1005,8 hPa 0,0 l/m 0 min 0 min 137 W/m 18,8 km/h (3 Bft) 97,87 %
17.11.2016 11:20 9,5 C 10,0 C 8,9 C 95 % 15 lf 1005,5 hPa 0,0 l/m 0 min 0 min 155 W/m 14,6 km/h (3 Bft) 97,87 %
17.11.2016 11:22 9,5 C 10,0 C 8,9 C 95 % 15 lf 1005,7 hPa 0,0 l/m 2 min 0 min 168 W/m 25,1 km/h (4 Bft) 97,87 %
17.11.2016 11:24 9,6 C 10,6 C 9,4 C 95 % 15 lf 1005,4 hPa 0,0 l/m 2 min 0 min 196 W/m 12,6 km/h (3 Bft) 93,62 %
17.11.2016 11:26 9,6 C 11,1 C 9,4 C 95 % 15 lf 1005,5 hPa 0,0 l/m 2 min 0 min 213 W/m 20,9 km/h (4 Bft) 97,83 %
17.11.2016 11:28 9,7 C 11,7 C 9,4 C 95 % 14 lf 1005,6 hPa 0,0 l/m 2 min 0 min 246 W/m 16,7 km/h (3 Bft) 97,87 %
17.11.2016 11:30 9,7 C 11,7 C 9,4 C 96 % 14 lf 1005,6 hPa 0,0 l/m 2 min 0 min 223 W/m 16,7 km/h (3 Bft) 97,87 %
17.11.2016 11:32 9,8 C 11,1 C 8,9 C 96 % 14 lf 1005,5 hPa 0,0 l/m 2 min 0 min 181 W/m 20,9 km/h (4 Bft) 97,87 %
17.11.2016 11:34 9,8 C 10,6 C 8,9 C 96 % 13 lf 1005,4 hPa 0,0 l/m 0 min 0 min 121 W/m 16,7 km/h (3 Bft) 91,49 %
17.11.2016 11:36 9,8 C 10,6 C 8,3 C 96 % 14 lf 1005,5 hPa 0,0 l/m 0 min 0 min 76 W/m 14,6 km/h (3 Bft) 97,83 %
17.11.2016 11:38 9,8 C 10,6 C 8,3 C 96 % 13 lf 1005,4 hPa 0,0 l/m 0 min 0 min 153 W/m 18,8 km/h (3 Bft) 97,87 %
17.11.2016 11:40 9,8 C 11,1 C 8,9 C 96 % 13 lf 1005,2 hPa 0,0 l/m 2 min 0 min 165 W/m 20,9 km/h (4 Bft) 91,49 %
17.11.2016 11:42 9,8 C 11,7 C 8,9 C 96 % 12 lf 1005,2 hPa 0,0 l/m 0 min 0 min 141 W/m 14,6 km/h (3 Bft) 97,87 %
17.11.2016 11:44 9,9 C 13,3 C 8,9 C 96 % 11 lf 1005,1 hPa 0,0 l/m 2 min 0 min 202 W/m 16,7 km/h (3 Bft) 93,62 %
17.11.2016 11:46 9,9 C 13,3 C 8,9 C 96 % 10 lf 1005,1 hPa 0,0 l/m 2 min 0 min 349 W/m 20,9 km/h (4 Bft) 97,87 %
17.11.2016 11:48 9,9 C 12,2 C 8,9 C 96 % 9 lf 1005,1 hPa 0,0 l/m 2 min 0 min 351 W/m 31,4 km/h (5 Bft) 97,83 %
17.11.2016 11:50 10,0 C 12,2 C 8,9 C 96 % 7 lf 1005,1 hPa 0,0 l/m 2 min 0 min 328 W/m 23,0 km/h (4 Bft) 93,62 %
17.11.2016 11:52 10,0 C 12,2 C 8,9 C 96 % 6 lf 1005,1 hPa 0,0 l/m 2 min 0 min 316 W/m 27,2 km/h (4 Bft) 89,36 %
17.11.2016 11:54 10,1 C 12,2 C 8,9 C 95 % 5 lf 1005,0 hPa 0,0 l/m 2 min 0 min 318 W/m 16,7 km/h (3 Bft) 89,36 %
17.11.2016 11:56 10,1 C 12,2 C 8,3 C 95 % 4 lf 1005,0 hPa 0,2 l/m 2 min 0 min 326 W/m 27,2 km/h (4 Bft) 95,74 %
17.11.2016 11:58 10,1 C 12,8 C 8,3 C 95 % 4 lf 1004,9 hPa 0,0 l/m 2 min 0 min 325 W/m 27,2 km/h (4 Bft) 95,74 %
17.11.2016 12:00 10,1 C 12,8 C 8,9 C 95 % 3 lf 1005,0 hPa 0,0 l/m 2 min 0 min 325 W/m 23,0 km/h (4 Bft) 97,83 %
17.11.2016 12:02 10,1 C 12,8 C 8,9 C 95 % 3 lf 1004,9 hPa 0,0 l/m 2 min 0 min 331 W/m 31,4 km/h (5 Bft) 97,87 %
17.11.2016 12:06 10,2 C 12,8 C 8,9 C 95 % 1 lf 1005,0 hPa 0,0 l/m 2 min 0 min 329 W/m 25,1 km/h (4 Bft) 92,55 %
17.11.2016 12:08 10,2 C 12,8 C 8,9 C 95 % 1 lf 1004,8 hPa 0,0 l/m 2 min 0 min 332 W/m 27,2 km/h (4 Bft) 95,74 %
17.11.2016 12:10 10,2 C 12,8 C 8,9 C 95 % 0 lf 1004,8 hPa 0,0 l/m 2 min 0 min 316 W/m 25,1 km/h (4 Bft) 93,62 %
17.11.2016 12:12 10,3 C 12,8 C 8,9 C 94 % 0 lf 1004,7 hPa 0,0 l/m 2 min 0 min 334 W/m 25,1 km/h (4 Bft) 93,48 %
17.11.2016 12:14 10,3 C 13,3 C 8,9 C 94 % 0 lf 1004,7 hPa 0,0 l/m 2 min 0 min 344 W/m 20,9 km/h (4 Bft) 91,49 %
17.11.2016 12:16 10,3 C 13,3 C 8,9 C 94 % 0 lf 1004,7 hPa 0,0 l/m 2 min 0 min 348 W/m 16,7 km/h (3 Bft) 95,74 %
17.11.2016 12:18 10,4 C 13,3 C 8,9 C 94 % 0 lf 1004,6 hPa 0,0 l/m 2 min 0 min 347 W/m 20,9 km/h (4 Bft) 95,74 %
17.11.2016 12:20 10,4 C 12,8 C 8,9 C 94 % 0 lf 1004,5 hPa 0,0 l/m 2 min 0 min 347 W/m 23,0 km/h (4 Bft) 95,74 %
17.11.2016 12:22 10,4 C 12,8 C 8,9 C 93 % 0 lf 1004,6 hPa 0,0 l/m 2 min 0 min 341 W/m 20,9 km/h (4 Bft) 93,62 %
17.11.2016 12:24 10,5 C 13,3 C 8,9 C 93 % 0 lf 1004,6 hPa 0,0 l/m 2 min 0 min 345 W/m 37,7 km/h (5 Bft) 95,65 %
17.11.2016 12:26 10,6 C 13,9 C 8,9 C 93 % 0 lf 1004,5 hPa 0,0 l/m 2 min 0 min 303 W/m 23,0 km/h (4 Bft) 93,62 %
17.11.2016 12:28 10,6 C 12,8 C 8,9 C 92 % 0 lf 1004,4 hPa 0,0 l/m 2 min 0 min 403 W/m 31,4 km/h (5 Bft) 93,62 %
17.11.2016 12:30 10,6 C 12,2 C 8,9 C 91 % 0 lf 1004,6 hPa 0,0 l/m 2 min 0 min 653 W/m 27,2 km/h (4 Bft) 95,74 %
17.11.2016 12:32 10,6 C 12,2 C 8,9 C 91 % 0 lf 1004,5 hPa 0,0 l/m 2 min 0 min 670 W/m 18,8 km/h (3 Bft) 93,62 %
17.11.2016 12:34 10,6 C 12,2 C 8,9 C 90 % 0 lf 1004,5 hPa 0,0 l/m 2 min 0 min 689 W/m 23,0 km/h (4 Bft) 93,62 %
17.11.2016 12:36 10,7 C 12,2 C 8,9 C 90 % 0 lf 1004,5 hPa 0,0 l/m 2 min 0 min 661 W/m 20,9 km/h (4 Bft) 95,65 %
17.11.2016 12:38 10,7 C 12,2 C 8,9 C 90 % 0 lf 1004,5 hPa 0,0 l/m 2 min 0 min 669 W/m 16,7 km/h (3 Bft) 93,62 %
17.11.2016 12:40 10,7 C 12,2 C 8,9 C 89 % 0 lf 1004,4 hPa 0,0 l/m 2 min 0 min 678 W/m 18,8 km/h (3 Bft) 93,62 %
17.11.2016 12:42 10,7 C 12,2 C 8,9 C 89 % 0 lf 1004,4 hPa 0,0 l/m 2 min 0 min 684 W/m 25,1 km/h (4 Bft) 95,74 %
17.11.2016 12:44 10,7 C 11,7 C 8,9 C 89 % 0 lf 1004,4 hPa 0,0 l/m 2 min 0 min 612 W/m 27,2 km/h (4 Bft) 95,74 %
17.11.2016 12:46 10,7 C 12,2 C 8,9 C 88 % 0 lf 1004,3 hPa 0,0 l/m 2 min 0 min 281 W/m 27,2 km/h (4 Bft) 100,00 %
17.11.2016 12:48 10,7 C 12,2 C 8,9 C 88 % 0 lf 1004,4 hPa 0,0 l/m 2 min 0 min 184 W/m 20,9 km/h (4 Bft) 93,62 %
17.11.2016 12:50 10,7 C 12,2 C 8,9 C 88 % 0 lf 1004,3 hPa 0,0 l/m 2 min 0 min 179 W/m 23,0 km/h (4 Bft) 97,87 %
17.11.2016 12:52 10,7 C 12,8 C 9,4 C 88 % 0 lf 1004,3 hPa 0,0 l/m 2 min 0 min 171 W/m 20,9 km/h (4 Bft) 95,74 %
17.11.2016 12:54 10,7 C 12,8 C 9,4 C 87 % 0 lf 1004,3 hPa 0,0 l/m 2 min 0 min 205 W/m 25,1 km/h (4 Bft) 97,87 %
17.11.2016 12:56 10,8 C 13,3 C 9,4 C 87 % 0 lf 1004,3 hPa 0,0 l/m 2 min 0 min 274 W/m 23,0 km/h (4 Bft) 93,62 %
17.11.2016 12:58 10,8 C 13,3 C 9,4 C 87 % 0 lf 1004,4 hPa 0,0 l/m 2 min 0 min 244 W/m 23,0 km/h (4 Bft) 97,83 %
17.11.2016 13:00 10,8 C 12,8 C 8,9 C 87 % 0 lf 1004,4 hPa 0,0 l/m 2 min 0 min 212 W/m 23,0 km/h (4 Bft) 97,87 %
17.11.2016 13:02 10,8 C 12,8 C 8,9 C 86 % 0 lf 1004,4 hPa 0,0 l/m 2 min 0 min 203 W/m 25,1 km/h (4 Bft) 97,87 %
17.11.2016 13:04 10,9 C 13,3 C 8,9 C 86 % 0 lf 1004,3 hPa 0,0 l/m 2 min 0 min 207 W/m 14,6 km/h (3 Bft) 95,74 %
17.11.2016 13:06 10,9 C 13,3 C 8,9 C 86 % 0 lf 1004,3 hPa 0,0 l/m 2 min 0 min 215 W/m 20,9 km/h (4 Bft) 97,87 %
17.11.2016 13:08 10,9 C 12,8 C 8,9 C 86 % 0 lf 1004,3 hPa 0,0 l/m 0 min 0 min 161 W/m 27,2 km/h (4 Bft) 97,87 %
17.11.2016 13:10 10,9 C 12,8 C 8,9 C 85 % 0 lf 1004,3 hPa 0,0 l/m 2 min 0 min 180 W/m 25,1 km/h (4 Bft) 97,83 %
17.11.2016 13:12 10,9 C 12,8 C 8,9 C 85 % 0 lf 1004,3 hPa 0,0 l/m 2 min 0 min 162 W/m 27,2 km/h (4 Bft) 95,74 %
17.11.2016 13:14 10,9 C 12,8 C 8,9 C 85 % 0 lf 1004,2 hPa 0,0 l/m 2 min 0 min 177 W/m 23,0 km/h (4 Bft) 97,87 %
17.11.2016 13:16 11,0 C 12,8 C 8,9 C 85 % 0 lf 1004,2 hPa 0,0 l/m 2 min 0 min 178 W/m 31,4 km/h (5 Bft) 95,74 %
17.11.2016 13:18 11,0 C 12,8 C 8,9 C 84 % 0 lf 1004,2 hPa 0,0 l/m 2 min 0 min 177 W/m 31,4 km/h (5 Bft) 97,87 %
17.11.2016 13:20 11,0 C 12,8 C 8,9 C 84 % 0 lf 1004,2 hPa 0,0 l/m 2 min 0 min 206 W/m 20,9 km/h (4 Bft) 97,87 %
17.11.2016 13:22 11,0 C 13,9 C 8,9 C 84 % 0 lf 1004,1 hPa 0,0 l/m 2 min 0 min 247 W/m 20,9 km/h (4 Bft) 95,65 %
17.11.2016 13:24 11,1 C 13,9 C 8,9 C 84 % 0 lf 1004,1 hPa 0,0 l/m 2 min 0 min 275 W/m 27,2 km/h (4 Bft) 95,74 %
17.11.2016 13:26 11,1 C 14,4 C 9,4 C 84 % 0 lf 1004,0 hPa 0,0 l/m 2 min 0 min 235 W/m 18,8 km/h (3 Bft) 95,74 %
17.11.2016 13:28 11,2 C 14,4 C 9,4 C 84 % 0 lf 1004,0 hPa 0,0 l/m 2 min 0 min 208 W/m 20,9 km/h (4 Bft) 97,87 %
17.11.2016 13:30 11,2 C 13,9 C 8,9 C 84 % 0 lf 1004,0 hPa 0,0 l/m 2 min 0 min 200 W/m 25,1 km/h (4 Bft) 97,87 %
17.11.2016 13:32 11,2 C 13,3 C 8,9 C 84 % 0 lf 1003,9 hPa 0,0 l/m 2 min 0 min 167 W/m 25,1 km/h (4 Bft) 95,74 %
17.11.2016 13:34 11,2 C 13,9 C 9,4 C 84 % 0 lf 1003,9 hPa 0,0 l/m 2 min 0 min 226 W/m 35,6 km/h (5 Bft) 97,83 %
17.11.2016 13:36 11,3 C 15,0 C 9,4 C 84 % 0 lf 1003,8 hPa 0,0 l/m 2 min 0 min 357 W/m 31,4 km/h (5 Bft) 97,87 %
17.11.2016 13:38 11,3 C 16,1 C 9,4 C 84 % 0 lf 1003,8 hPa 0,0 l/m 2 min 0 min 311 W/m 20,9 km/h (4 Bft) 97,87 %
17.11.2016 13:40 11,4 C 16,1 C 9,4 C 83 % 0 lf 1003,8 hPa 0,0 l/m 2 min 0 min 306 W/m 23,0 km/h (4 Bft) 97,87 %
17.11.2016 13:42 11,4 C 16,7 C 9,4 C 83 % 0 lf 1003,6 hPa 0,0 l/m 2 min 0 min 318 W/m 27,2 km/h (4 Bft) 97,87 %
17.11.2016 13:44 11,5 C 17,2 C 10,0 C 83 % 0 lf 1003,5 hPa 0,0 l/m 2 min 0 min 372 W/m 23,0 km/h (4 Bft) 95,74 %
17.11.2016 13:46 11,6 C 15,0 C 9,4 C 83 % 0 lf 1003,5 hPa 0,0 l/m 2 min 0 min 284 W/m 27,2 km/h (4 Bft) 100,00 %
17.11.2016 13:48 11,6 C 14,4 C 9,4 C 83 % 0 lf 1003,5 hPa 0,0 l/m 2 min 0 min 224 W/m 37,7 km/h (5 Bft) 100,00 %
17.11.2016 13:50 11,6 C 13,9 C 9,4 C 83 % 0 lf 1003,5 hPa 0,0 l/m 2 min 0 min 184 W/m 25,1 km/h (4 Bft) 100,00 %
17.11.2016 13:52 11,7 C 13,3 C 9,4 C 82 % 0 lf 1003,4 hPa 0,0 l/m 2 min 0 min 153 W/m 31,4 km/h (5 Bft) 97,87 %
17.11.2016 13:54 11,6 C 12,8 C 9,4 C 82 % 0 lf 1003,4 hPa 0,0 l/m 0 min 0 min 119 W/m 33,5 km/h (5 Bft) 97,87 %
17.11.2016 13:56 11,7 C 12,2 C 9,4 C 82 % 0 lf 1003,4 hPa 0,0 l/m 0 min 0 min 85 W/m 31,4 km/h (5 Bft) 97,87 %
17.11.2016 13:58 11,6 C 12,2 C 9,4 C 83 % 0 lf 1003,4 hPa 0,0 l/m 0 min 0 min 66 W/m 23,0 km/h (4 Bft) 97,83 %
17.11.2016 14:00 11,6 C 11,7 C 9,4 C 83 % 0 lf 1003,4 hPa 0,0 l/m 0 min 0 min 55 W/m 29,3 km/h (5 Bft) 100,00 %
17.11.2016 14:02 11,6 C 11,7 C 9,4 C 83 % 0 lf 1003,3 hPa 0,0 l/m 0 min 0 min 65 W/m 29,3 km/h (5 Bft) 95,74 %
17.11.2016 14:04 11,5 C 11,7 C 9,4 C 83 % 0 lf 1003,3 hPa 0,0 l/m 0 min 0 min 64 W/m 20,9 km/h (4 Bft) 95,74 %
17.11.2016 14:06 11,5 C 11,7 C 9,4 C 84 % 0 lf 1003,3 hPa 0,0 l/m 0 min 0 min 60 W/m 31,4 km/h (5 Bft) 97,87 %
17.11.2016 14:08 11,5 C 11,7 C 9,4 C 84 % 0 lf 1003,3 hPa 0,0 l/m 0 min 0 min 55 W/m 39,7 km/h (6 Bft) 95,65 %
17.11.2016 14:10 11,4 C 11,7 C 9,4 C 84 % 0 lf 1003,3 hPa 0,0 l/m 0 min 0 min 45 W/m 35,6 km/h (5 Bft) 93,62 %
17.11.2016 14:12 11,4 C 11,7 C 9,4 C 84 % 0 lf 1003,2 hPa 0,0 l/m 0 min 0 min 49 W/m 35,6 km/h (5 Bft) 97,87 %
17.11.2016 14:14 11,4 C 11,7 C 9,4 C 84 % 0 lf 1003,2 hPa 0,0 l/m 0 min 0 min 51 W/m 18,8 km/h (3 Bft) 95,74 %
17.11.2016 14:16 11,4 C 11,7 C 9,4 C 85 % 0 lf 1003,1 hPa 0,0 l/m 0 min 0 min 44 W/m 16,7 km/h (3 Bft) 95,74 %
17.11.2016 14:18 11,4 C 11,7 C 9,4 C 85 % 0 lf 1003,2 hPa 0,0 l/m 0 min 0 min 40 W/m 29,3 km/h (5 Bft) 95,74 %
17.11.2016 14:20 11,4 C 11,7 C 9,4 C 85 % 0 lf 1003,1 hPa 0,0 l/m 0 min 0 min 36 W/m 25,1 km/h (4 Bft) 95,65 %
17.11.2016 14:22 11,4 C 11,7 C 9,4 C 85 % 0 lf 1003,2 hPa 0,0 l/m 0 min 0 min 35 W/m 27,2 km/h (4 Bft) 93,62 %
17.11.2016 14:24 11,3 C 11,7 C 9,4 C 85 % 0 lf 1003,2 hPa 0,0 l/m 0 min 0 min 37 W/m 31,4 km/h (5 Bft) 91,49 %
17.11.2016 14:26 11,3 C 11,7 C 9,4 C 85 % 1 lf 1003,2 hPa 0,0 l/m 0 min 0 min 42 W/m 23,0 km/h (4 Bft) 93,62 %
17.11.2016 14:28 11,3 C 11,7 C 9,4 C 86 % 0 lf 1003,2 hPa 0,0 l/m 0 min 0 min 52 W/m 20,9 km/h (4 Bft) 95,74 %
17.11.2016 14:30 11,3 C 11,7 C 9,4 C 86 % 0 lf 1003,1 hPa 0,0 l/m 0 min 0 min 55 W/m 27,2 km/h (4 Bft) 95,74 %
17.11.2016 14:32 11,3 C 11,7 C 9,4 C 86 % 0 lf 1003,1 hPa 0,0 l/m 0 min 0 min 50 W/m 25,1 km/h (4 Bft) 95,65 %
17.11.2016 14:34 11,3 C 11,7 C 9,4 C 86 % 0 lf 1003,1 hPa 0,0 l/m 0 min 0 min 46 W/m 29,3 km/h (5 Bft) 95,74 %
17.11.2016 14:36 11,3 C 11,7 C 9,4 C 86 % 0 lf 1003,0 hPa 0,0 l/m 0 min 0 min 49 W/m 29,3 km/h (5 Bft) 93,62 %
17.11.2016 14:38 11,3 C 11,7 C 9,4 C 86 % 0 lf 1002,9 hPa 0,0 l/m 0 min 0 min 49 W/m 29,3 km/h (5 Bft) 93,62 %
17.11.2016 14:40 11,3 C 11,7 C 9,4 C 86 % 0 lf 1002,9 hPa 0,0 l/m 0 min 0 min 52 W/m 31,4 km/h (5 Bft) 93,62 %
17.11.2016 14:42 11,3 C 11,7 C 9,4 C 86 % 0 lf 1002,8 hPa 0,0 l/m 0 min 0 min 54 W/m 25,1 km/h (4 Bft) 93,62 %
17.11.2016 14:44 11,3 C 11,7 C 9,4 C 86 % 0 lf 1002,8 hPa 0,0 l/m 0 min 0 min 56 W/m 20,9 km/h (4 Bft) 91,30 %
17.11.2016 14:46 11,3 C 11,7 C 9,4 C 87 % 0 lf 1002,8 hPa 0,0 l/m 0 min 0 min 60 W/m 31,4 km/h (5 Bft) 95,74 %
17.11.2016 14:48 11,3 C 11,7 C 9,4 C 87 % 0 lf 1002,8 hPa 0,0 l/m 0 min 0 min 61 W/m 23,0 km/h (4 Bft) 91,49 %
17.11.2016 14:50 11,3 C 11,7 C 9,4 C 87 % 0 lf 1002,8 hPa 0,0 l/m 0 min 0 min 52 W/m 29,3 km/h (5 Bft) 97,87 %
17.11.2016 14:52 11,3 C 11,7 C 9,4 C 87 % 0 lf 1002,7 hPa 0,0 l/m 0 min 0 min 37 W/m 14,6 km/h (3 Bft) 95,74 %
17.11.2016 14:54 11,3 C 11,7 C 9,4 C 87 % 0 lf 1002,8 hPa 0,0 l/m 0 min 2 min 27 W/m 23,0 km/h (4 Bft) 93,62 %
17.11.2016 14:56 11,3 C 11,7 C 9,4 C 87 % 0 lf 1002,6 hPa 0,0 l/m 0 min 0 min 27 W/m 29,3 km/h (5 Bft) 93,48 %
17.11.2016 14:58 11,3 C 11,7 C 9,4 C 87 % 0 lf 1002,6 hPa 0,0 l/m 0 min 0 min 29 W/m 35,6 km/h (5 Bft) 95,74 %
17.11.2016 15:00 11,3 C 11,7 C 9,4 C 86 % 0 lf 1002,6 hPa 0,0 l/m 0 min 0 min 42 W/m 27,2 km/h (4 Bft) 95,74 %
17.11.2016 15:02 11,3 C 11,7 C 9,4 C 86 % 0 lf 1002,6 hPa 0,0 l/m 0 min 0 min 48 W/m 20,9 km/h (4 Bft) 91,49 %
17.11.2016 15:04 11,3 C 11,7 C 10,0 C 86 % 0 lf 1002,5 hPa 0,0 l/m 0 min 0 min 45 W/m 18,8 km/h (3 Bft) 95,74 %
17.11.2016 15:06 11,3 C 11,7 C 10,0 C 86 % 0 lf 1002,5 hPa 0,0 l/m 0 min 0 min 43 W/m 29,3 km/h (5 Bft) 97,87 %
17.11.2016 15:08 11,3 C 11,7 C 10,0 C 86 % 0 lf 1002,6 hPa 0,0 l/m 0 min 0 min 47 W/m 16,7 km/h (3 Bft) 97,83 %
17.11.2016 15:10 11,3 C 11,7 C 10,0 C 86 % 0 lf 1002,6 hPa 0,0 l/m 0 min 0 min 52 W/m 27,2 km/h (4 Bft) 95,74 %
17.11.2016 15:12 11,3 C 11,7 C 10,0 C 86 % 0 lf 1002,6 hPa 0,0 l/m 0 min 0 min 45 W/m 23,0 km/h (4 Bft) 89,36 %
17.11.2016 15:14 11,3 C 11,7 C 10,0 C 86 % 0 lf 1002,5 hPa 0,0 l/m 0 min 0 min 49 W/m 23,0 km/h (4 Bft) 91,49 %
17.11.2016 15:16 11,3 C 11,7 C 10,0 C 86 % 0 lf 1002,5 hPa 0,0 l/m 0 min 0 min 63 W/m 29,3 km/h (5 Bft) 97,87 %
17.11.2016 15:18 11,3 C 11,7 C 10,0 C 86 % 0 lf 1002,5 hPa 0,0 l/m 0 min 0 min 63 W/m 35,6 km/h (5 Bft) 95,74 %
17.11.2016 15:20 11,3 C 11,7 C 10,0 C 85 % 0 lf 1002,5 hPa 0,0 l/m 0 min 0 min 58 W/m 20,9 km/h (4 Bft) 97,83 %
17.11.2016 15:22 11,3 C 11,7 C 10,0 C 85 % 0 lf 1002,5 hPa 0,0 l/m 0 min 0 min 58 W/m 25,1 km/h (4 Bft) 95,74 %
17.11.2016 15:24 11,4 C 11,7 C 10,0 C 85 % 0 lf 1002,6 hPa 0,0 l/m 0 min 0 min 52 W/m 29,3 km/h (5 Bft) 95,74 %
17.11.2016 15:26 11,4 C 11,7 C 10,0 C 85 % 0 lf 1002,6 hPa 0,0 l/m 0 min 0 min 49 W/m 27,2 km/h (4 Bft) 97,87 %
17.11.2016 15:28 11,4 C 11,7 C 10,0 C 85 % 0 lf 1002,6 hPa 0,0 l/m 0 min 0 min 58 W/m 27,2 km/h (4 Bft) 97,87 %
17.11.2016 15:30 11,4 C 12,2 C 10,0 C 85 % 0 lf 1002,5 hPa 0,0 l/m 0 min 0 min 63 W/m 27,2 km/h (4 Bft) 95,65 %
17.11.2016 15:32 11,4 C 12,2 C 10,6 C 85 % 0 lf 1002,4 hPa 0,0 l/m 0 min 0 min 65 W/m 27,2 km/h (4 Bft) 97,87 %
17.11.2016 15:34 11,4 C 12,2 C 10,0 C 84 % 0 lf 1002,3 hPa 0,0 l/m 0 min 0 min 64 W/m 29,3 km/h (5 Bft) 95,74 %
17.11.2016 15:36 11,4 C 12,2 C 10,0 C 84 % 0 lf 1002,3 hPa 0,0 l/m 2 min 0 min 66 W/m 27,2 km/h (4 Bft) 95,74 %
17.11.2016 15:38 11,4 C 12,2 C 10,0 C 84 % 0 lf 1002,2 hPa 0,0 l/m 0 min 0 min 60 W/m 27,2 km/h (4 Bft) 97,87 %
17.11.2016 15:40 11,5 C 11,7 C 10,0 C 84 % 0 lf 1002,2 hPa 0,0 l/m 0 min 0 min 48 W/m 29,3 km/h (5 Bft) 97,87 %
17.11.2016 15:42 11,5 C 11,7 C 10,0 C 84 % 0 lf 1002,2 hPa 0,0 l/m 0 min 0 min 41 W/m 23,0 km/h (4 Bft) 93,48 %
17.11.2016 15:44 11,5 C 11,7 C 10,0 C 84 % 0 lf 1002,3 hPa 0,0 l/m 0 min 0 min 34 W/m 27,2 km/h (4 Bft) 100,00 %
17.11.2016 15:46 11,5 C 11,7 C 10,0 C 84 % 0 lf 1002,2 hPa 0,0 l/m 0 min 0 min 35 W/m 31,4 km/h (5 Bft) 100,00 %
17.11.2016 15:48 11,5 C 11,7 C 10,0 C 84 % 0 lf 1002,2 hPa 0,0 l/m 0 min 0 min 40 W/m 29,3 km/h (5 Bft) 97,87 %
17.11.2016 15:50 11,5 C 11,7 C 10,0 C 84 % 0 lf 1002,1 hPa 0,0 l/m 0 min 0 min 38 W/m 16,7 km/h (3 Bft) 100,00 %
17.11.2016 15:52 11,5 C 11,7 C 10,0 C 84 % 0 lf 1002,2 hPa 0,0 l/m 0 min 0 min 36 W/m 27,2 km/h (4 Bft) 97,87 %
17.11.2016 15:54 11,5 C 11,7 C 10,0 C 84 % 0 lf 1002,2 hPa 0,0 l/m 0 min 0 min 41 W/m 33,5 km/h (5 Bft) 100,00 %
17.11.2016 15:56 11,5 C 11,7 C 10,0 C 84 % 0 lf 1002,2 hPa 0,0 l/m 2 min 0 min 45 W/m 31,4 km/h (5 Bft) 93,62 %
17.11.2016 15:58 11,5 C 11,7 C 10,0 C 84 % 0 lf 1002,1 hPa 0,0 l/m 2 min 0 min 48 W/m 33,5 km/h (5 Bft) 97,87 %
17.11.2016 16:00 11,5 C 11,7 C 10,0 C 83 % 0 lf 1002,1 hPa 0,0 l/m 2 min 0 min 45 W/m 29,3 km/h (5 Bft) 100,00 %
17.11.2016 16:02 11,5 C 11,7 C 10,0 C 83 % 0 lf 1002,2 hPa 0,0 l/m 2 min 0 min 41 W/m 20,9 km/h (4 Bft) 100,00 %
17.11.2016 16:04 11,5 C 11,7 C 10,0 C 83 % 0 lf 1002,1 hPa 0,0 l/m 2 min 0 min 38 W/m 20,9 km/h (4 Bft) 97,87 %
17.11.2016 16:06 11,5 C 11,7 C 10,0 C 84 % 0 lf 1002,0 hPa 0,0 l/m 2 min 0 min 36 W/m 14,6 km/h (3 Bft) 100,00 %
17.11.2016 16:08 11,5 C 11,7 C 10,0 C 84 % 0 lf 1002,0 hPa 0,0 l/m 0 min 0 min 32 W/m 27,2 km/h (4 Bft) 97,87 %
17.11.2016 16:10 11,4 C 11,7 C 10,0 C 84 % 0 lf 1001,8 hPa 0,0 l/m 2 min 0 min 32 W/m 20,9 km/h (4 Bft) 97,87 %
17.11.2016 16:12 11,4 C 11,7 C 10,0 C 84 % 0 lf 1001,8 hPa 0,0 l/m 2 min 0 min 31 W/m 20,9 km/h (4 Bft) 95,74 %
17.11.2016 16:14 11,4 C 11,7 C 10,0 C 84 % 0 lf 1001,8 hPa 0,0 l/m 2 min 0 min 29 W/m 18,8 km/h (3 Bft) 97,87 %
17.11.2016 16:16 11,4 C 11,7 C 10,0 C 84 % 0 lf 1001,8 hPa 0,0 l/m 2 min 0 min 26 W/m 27,2 km/h (4 Bft) 97,87 %
17.11.2016 16:18 11,4 C 11,7 C 10,0 C 84 % 0 lf 1001,8 hPa 0,0 l/m 2 min 0 min 23 W/m 16,7 km/h (3 Bft) 93,48 %
17.11.2016 16:20 11,4 C 11,7 C 10,0 C 84 % 0 lf 1001,8 hPa 0,0 l/m 2 min 0 min 23 W/m 18,8 km/h (3 Bft) 95,74 %
17.11.2016 16:22 11,4 C 11,7 C 10,0 C 84 % 0 lf 1001,8 hPa 0,0 l/m 2 min 0 min 22 W/m 25,1 km/h (4 Bft) 97,87 %
17.11.2016 16:24 11,4 C 11,7 C 10,0 C 84 % 0 lf 1001,6 hPa 0,0 l/m 2 min 0 min 21 W/m 23,0 km/h (4 Bft) 95,74 %
17.11.2016 16:26 11,4 C 11,7 C 10,0 C 84 % 0 lf 1001,7 hPa 0,0 l/m 2 min 0 min 21 W/m 18,8 km/h (3 Bft) 93,62 %
17.11.2016 16:28 11,4 C 11,7 C 9,4 C 84 % 0 lf 1001,6 hPa 0,0 l/m 2 min 0 min 19 W/m 23,0 km/h (4 Bft) 93,62 %
17.11.2016 16:30 11,4 C 11,7 C 10,0 C 84 % 0 lf 1001,5 hPa 0,0 l/m 0 min 0 min 16 W/m 20,9 km/h (4 Bft) 95,65 %
17.11.2016 16:32 11,3 C 11,7 C 9,4 C 84 % 0 lf 1001,5 hPa 0,0 l/m 0 min 0 min 12 W/m 16,7 km/h (3 Bft) 93,62 %
17.11.2016 16:34 11,3 C 11,1 C 9,4 C 84 % 0 lf 1001,5 hPa 0,0 l/m 0 min 0 min 11 W/m 14,6 km/h (3 Bft) 95,74 %
17.11.2016 16:36 11,3 C 11,1 C 9,4 C 84 % 0 lf 1001,4 hPa 0,0 l/m 0 min 0 min 12 W/m 12,6 km/h (3 Bft) 95,74 %
17.11.2016 16:38 11,3 C 11,1 C 9,4 C 84 % 0 lf 1001,4 hPa 0,0 l/m 0 min 0 min 12 W/m 18,8 km/h (3 Bft) 93,62 %
17.11.2016 16:40 11,3 C 11,1 C 9,4 C 84 % 0 lf 1001,4 hPa 0,0 l/m 0 min 0 min 11 W/m 25,1 km/h (4 Bft) 91,49 %
17.11.2016 16:42 11,3 C 11,7 C 9,4 C 84 % 0 lf 1001,3 hPa 0,0 l/m 0 min 0 min 9 W/m 31,4 km/h (5 Bft) 97,83 %
17.11.2016 16:44 11,3 C 11,7 C 10,0 C 85 % 0 lf 1001,2 hPa 0,0 l/m 0 min 0 min 9 W/m 31,4 km/h (5 Bft) 95,74 %
17.11.2016 16:46 11,3 C 11,7 C 10,0 C 85 % 0 lf 1001,2 hPa 0,0 l/m 0 min 0 min 9 W/m 20,9 km/h (4 Bft) 93,62 %
17.11.2016 16:48 11,3 C 11,7 C 10,0 C 85 % 0 lf 1001,2 hPa 0,0 l/m 0 min 0 min 9 W/m 25,1 km/h (4 Bft) 97,87 %
17.11.2016 16:50 11,3 C 11,1 C 9,4 C 85 % 0 lf 1001,2 hPa 0,0 l/m 0 min 0 min 9 W/m 16,7 km/h (3 Bft) 97,87 %
17.11.2016 16:52 11,3 C 11,1 C 9,4 C 85 % 0 lf 1001,2 hPa 0,0 l/m 0 min 0 min 9 W/m 25,1 km/h (4 Bft) 95,65 %
17.11.2016 16:54 11,3 C 11,1 C 9,4 C 85 % 0 lf 1001,1 hPa 0,0 l/m 0 min 0 min 8 W/m 16,7 km/h (3 Bft) 95,74 %
17.11.2016 16:56 11,3 C 11,1 C 9,4 C 85 % 0 lf 1001,1 hPa 0,0 l/m 0 min 0 min 7 W/m 33,5 km/h (5 Bft) 95,74 %
17.11.2016 16:58 11,3 C 11,7 C 9,4 C 85 % 0 lf 1001,0 hPa 0,0 l/m 0 min 0 min 7 W/m 27,2 km/h (4 Bft) 97,87 %
17.11.2016 17:00 11,3 C 11,1 C 9,4 C 85 % 0 lf 1000,9 hPa 0,0 l/m 0 min 0 min 0 W/m 25,1 km/h (4 Bft) 97,87 %
17.11.2016 17:02 11,3 C 11,7 C 10,0 C 85 % 0 lf 1000,8 hPa 0,0 l/m 0 min 0 min 0 W/m 25,1 km/h (4 Bft) 95,74 %
17.11.2016 17:04 11,3 C 11,7 C 10,0 C 85 % 0 lf 1000,8 hPa 0,0 l/m 0 min 0 min 0 W/m 25,1 km/h (4 Bft) 95,65 %
17.11.2016 17:06 11,3 C 11,7 C 10,0 C 86 % 0 lf 1000,7 hPa 0,0 l/m 0 min 0 min 0 W/m 29,3 km/h (5 Bft) 95,74 %
17.11.2016 17:08 11,3 C 11,7 C 9,4 C 86 % 0 lf 1000,6 hPa 0,0 l/m 0 min 0 min 0 W/m 31,4 km/h (5 Bft) 95,74 %
17.11.2016 17:10 11,3 C 11,7 C 9,4 C 86 % 0 lf 1000,6 hPa 0,0 l/m 0 min 0 min 0 W/m 39,7 km/h (6 Bft) 95,74 %
17.11.2016 17:12 11,3 C 11,7 C 9,4 C 86 % 0 lf 1000,5 hPa 0,0 l/m 0 min 0 min 0 W/m 29,3 km/h (5 Bft) 89,36 %
17.11.2016 17:14 11,3 C 11,7 C 9,4 C 86 % 0 lf 1000,5 hPa 0,0 l/m 0 min 0 min 0 W/m 27,2 km/h (4 Bft) 91,49 %
17.11.2016 17:16 11,3 C 11,1 C 9,4 C 86 % 0 lf 1000,5 hPa 0,0 l/m 0 min 0 min 0 W/m 18,8 km/h (3 Bft) 95,65 %
17.11.2016 17:18 11,3 C 11,1 C 9,4 C 86 % 0 lf 1000,5 hPa 0,0 l/m 0 min 0 min 0 W/m 29,3 km/h (5 Bft) 93,62 %
17.11.2016 17:20 11,3 C 11,1 C 9,4 C 86 % 0 lf 1000,5 hPa 0,0 l/m 0 min 0 min 0 W/m 27,2 km/h (4 Bft) 91,49 %
17.11.2016 17:22 11,3 C 11,7 C 9,4 C 86 % 0 lf 1000,5 hPa 0,0 l/m 0 min 0 min 0 W/m 37,7 km/h (5 Bft) 95,74 %
17.11.2016 17:24 11,3 C 11,1 C 9,4 C 86 % 0 lf 1000,5 hPa 0,0 l/m 0 min 0 min 0 W/m 33,5 km/h (5 Bft) 95,74 %
17.11.2016 17:26 11,3 C 11,1 C 9,4 C 86 % 0 lf 1000,5 hPa 0,0 l/m 0 min 0 min 0 W/m 18,8 km/h (3 Bft) 93,62 %
17.11.2016 17:28 11,3 C 11,1 C 9,4 C 86 % 0 lf 1000,5 hPa 0,0 l/m 0 min 0 min 0 W/m 31,4 km/h (5 Bft) 93,48 %
17.11.2016 17:30 11,3 C 11,1 C 9,4 C 86 % 0 lf 1000,5 hPa 0,0 l/m 0 min 0 min 0 W/m 33,5 km/h (5 Bft) 97,87 %
17.11.2016 17:32 11,3 C 11,1 C 9,4 C 86 % 0 lf 1000,5 hPa 0,0 l/m 0 min 0 min 0 W/m 23,0 km/h (4 Bft) 95,74 %
17.11.2016 17:34 11,2 C 11,1 C 9,4 C 86 % 0 lf 1000,4 hPa 0,0 l/m 0 min 0 min 0 W/m 37,7 km/h (5 Bft) 93,62 %
17.11.2016 17:36 11,3 C 11,7 C 9,4 C 86 % 0 lf 1000,4 hPa 0,0 l/m 0 min 0 min 0 W/m 46,0 km/h (6 Bft) 97,87 %
17.11.2016 17:38 11,3 C 11,7 C 10,0 C 86 % 0 lf 1000,4 hPa 0,0 l/m 0 min 0 min 0 W/m 37,7 km/h (5 Bft) 93,62 %
17.11.2016 17:40 11,3 C 11,7 C 10,0 C 86 % 0 lf 1000,4 hPa 0,0 l/m 0 min 0 min 0 W/m 37,7 km/h (5 Bft) 97,83 %
17.11.2016 17:42 11,3 C 11,7 C 9,4 C 86 % 0 lf 1000,5 hPa 0,0 l/m 0 min 0 min 0 W/m 46,0 km/h (6 Bft) 93,62 %
17.11.2016 17:44 11,3 C 11,7 C 9,4 C 86 % 0 lf 1000,4 hPa 0,0 l/m 0 min 0 min 0 W/m 56,5 km/h (7 Bft) 95,74 %
17.11.2016 17:46 11,3 C 11,7 C 10,0 C 86 % 0 lf 1000,4 hPa 0,0 l/m 0 min 0 min 0 W/m 39,7 km/h (6 Bft) 91,49 %
17.11.2016 17:48 11,3 C 11,7 C 10,0 C 86 % 0 lf 1000,4 hPa 0,0 l/m 0 min 0 min 0 W/m 27,2 km/h (4 Bft) 95,74 %
17.11.2016 17:50 11,3 C 11,7 C 10,0 C 86 % 0 lf 1000,3 hPa 0,0 l/m 0 min 0 min 0 W/m 43,9 km/h (6 Bft) 95,74 %
17.11.2016 17:52 11,3 C 11,7 C 10,0 C 86 % 0 lf 1000,3 hPa 0,0 l/m 0 min 0 min 0 W/m 39,7 km/h (6 Bft) 97,83 %
17.11.2016 17:54 11,3 C 11,7 C 10,0 C 86 % 0 lf 1000,2 hPa 0,0 l/m 0 min 0 min 0 W/m 35,6 km/h (5 Bft) 93,62 %
17.11.2016 17:56 11,3 C 11,7 C 10,0 C 86 % 0 lf 1000,2 hPa 0,0 l/m 0 min 0 min 0 W/m 35,6 km/h (5 Bft) 93,62 %
17.11.2016 17:58 11,3 C 11,7 C 10,0 C 86 % 0 lf 1000,2 hPa 0,0 l/m 0 min 0 min 0 W/m 27,2 km/h (4 Bft) 95,74 %
17.11.2016 18:00 11,4 C 11,7 C 10,0 C 86 % 0 lf 1000,1 hPa 0,0 l/m 0 min 0 min 0 W/m 37,7 km/h (5 Bft) 97,87 %
17.11.2016 18:02 11,4 C 11,7 C 10,0 C 85 % 0 lf 1000,2 hPa 0,0 l/m 0 min 0 min 0 W/m 35,6 km/h (5 Bft) 95,65 %
17.11.2016 18:06 11,4 C 11,7 C 10,0 C 85 % 0 lf 1000,2 hPa 0,0 l/m 0 min 0 min 0 W/m 37,7 km/h (5 Bft) 94,68 %
17.11.2016 18:08 11,4 C 11,7 C 10,0 C 85 % 1 lf 1000,1 hPa 0,0 l/m 0 min 0 min 0 W/m 35,6 km/h (5 Bft) 93,62 %
17.11.2016 18:10 11,4 C 11,7 C 10,0 C 85 % 0 lf 1000,1 hPa 0,0 l/m 0 min 0 min 0 W/m 35,6 km/h (5 Bft) 95,74 %
17.11.2016 18:12 11,4 C 11,7 C 10,0 C 85 % 0 lf 1000,1 hPa 0,0 l/m 0 min 2 min 0 W/m 33,5 km/h (5 Bft) 93,62 %
17.11.2016 18:14 11,4 C 11,1 C 9,4 C 85 % 0 lf 1000,0 hPa 0,0 l/m 0 min 2 min 0 W/m 25,1 km/h (4 Bft) 95,74 %
17.11.2016 18:16 11,4 C 11,1 C 9,4 C 85 % 2 lf 1000,0 hPa 0,0 l/m 0 min 2 min 0 W/m 41,8 km/h (6 Bft) 95,65 %
17.11.2016 18:18 11,4 C 11,1 C 9,4 C 86 % 1 lf 1000,0 hPa 0,0 l/m 0 min 2 min 0 W/m 37,7 km/h (5 Bft) 95,74 %
17.11.2016 18:20 11,4 C 11,1 C 9,4 C 86 % 1 lf 1000,0 hPa 0,0 l/m 0 min 2 min 0 W/m 39,7 km/h (6 Bft) 95,74 %
17.11.2016 18:22 11,4 C 11,1 C 9,4 C 86 % 2 lf 999,8 hPa 0,0 l/m 0 min 2 min 0 W/m 37,7 km/h (5 Bft) 93,62 %
17.11.2016 18:24 11,4 C 10,6 C 8,9 C 86 % 0 lf 999,9 hPa 0,0 l/m 0 min 2 min 0 W/m 33,5 km/h (5 Bft) 95,74 %
17.11.2016 18:26 11,4 C 11,1 C 8,9 C 86 % 0 lf 999,8 hPa 0,0 l/m 0 min 2 min 0 W/m 46,0 km/h (6 Bft) 95,65 %
17.11.2016 18:28 11,3 C 11,1 C 8,9 C 87 % 0 lf 999,7 hPa 0,0 l/m 0 min 0 min 0 W/m 31,4 km/h (5 Bft) 95,74 %
17.11.2016 18:30 11,3 C 11,1 C 9,4 C 87 % 0 lf 999,7 hPa 0,0 l/m 0 min 2 min 0 W/m 46,0 km/h (6 Bft) 95,74 %
17.11.2016 18:32 11,3 C 11,1 C 9,4 C 87 % 0 lf 999,6 hPa 0,0 l/m 0 min 0 min 0 W/m 39,7 km/h (6 Bft) 97,87 %
17.11.2016 18:34 11,3 C 11,1 C 9,4 C 87 % 0 lf 999,7 hPa 0,0 l/m 0 min 0 min 0 W/m 41,8 km/h (6 Bft) 97,87 %
17.11.2016 18:36 11,3 C 11,1 C 9,4 C 87 % 0 lf 999,6 hPa 0,0 l/m 0 min 0 min 0 W/m 27,2 km/h (4 Bft) 100,00 %
17.11.2016 18:38 11,3 C 11,1 C 9,4 C 87 % 0 lf 999,4 hPa 0,0 l/m 0 min 0 min 0 W/m 33,5 km/h (5 Bft) 97,83 %
17.11.2016 18:40 11,3 C 11,1 C 9,4 C 87 % 0 lf 999,5 hPa 0,0 l/m 0 min 0 min 0 W/m 29,3 km/h (5 Bft) 100,00 %
17.11.2016 18:42 11,3 C 11,1 C 9,4 C 87 % 0 lf 999,5 hPa 0,0 l/m 0 min 0 min 0 W/m 23,0 km/h (4 Bft) 100,00 %
17.11.2016 18:44 11,3 C 11,1 C 9,4 C 87 % 0 lf 999,5 hPa 0,0 l/m 0 min 0 min 0 W/m 23,0 km/h (4 Bft) 100,00 %
17.11.2016 18:46 11,2 C 11,1 C 9,4 C 88 % 0 lf 999,4 hPa 0,0 l/m 0 min 0 min 0 W/m 27,2 km/h (4 Bft) 95,74 %
17.11.2016 18:48 11,2 C 11,1 C 9,4 C 88 % 0 lf 999,4 hPa 0,0 l/m 0 min 0 min 0 W/m 43,9 km/h (6 Bft) 97,87 %
17.11.2016 18:50 11,2 C 11,1 C 9,4 C 88 % 0 lf 999,5 hPa 0,0 l/m 0 min 0 min 0 W/m 37,7 km/h (5 Bft) 97,83 %
17.11.2016 18:52 11,2 C 11,1 C 10,0 C 88 % 0 lf 999,5 hPa 0,0 l/m 0 min 0 min 0 W/m 39,7 km/h (6 Bft) 95,74 %
17.11.2016 18:54 11,2 C 11,1 C 9,4 C 88 % 0 lf 999,5 hPa 0,0 l/m 0 min 0 min 0 W/m 31,4 km/h (5 Bft) 97,87 %
17.11.2016 18:56 11,2 C 11,1 C 10,0 C 88 % 0 lf 999,3 hPa 0,0 l/m 0 min 0 min 0 W/m 43,9 km/h (6 Bft) 100,00 %
17.11.2016 18:58 11,2 C 11,1 C 9,4 C 88 % 0 lf 999,3 hPa 0,0 l/m 0 min 0 min 0 W/m 31,4 km/h (5 Bft) 97,87 %
17.11.2016 19:00 11,2 C 11,1 C 9,4 C 88 % 0 lf 999,3 hPa 0,0 l/m 0 min 0 min 0 W/m 33,5 km/h (5 Bft) 95,74 %
17.11.2016 19:02 11,2 C 11,1 C 9,4 C 88 % 0 lf 999,4 hPa 0,0 l/m 0 min 0 min 0 W/m 23,0 km/h (4 Bft) 97,83 %
17.11.2016 19:04 11,2 C 11,1 C 10,0 C 88 % 0 lf 999,4 hPa 0,0 l/m 0 min 0 min 0 W/m 41,8 km/h (6 Bft) 100,00 %
17.11.2016 19:06 11,2 C 11,7 C 10,0 C 88 % 0 lf 999,3 hPa 0,0 l/m 0 min 0 min 0 W/m 46,0 km/h (6 Bft) 97,87 %
17.11.2016 19:08 11,2 C 11,7 C 10,0 C 88 % 0 lf 999,2 hPa 0,0 l/m 0 min 0 min 0 W/m 39,7 km/h (6 Bft) 97,87 %
17.11.2016 19:10 11,3 C 11,7 C 10,0 C 88 % 0 lf 999,3 hPa 0,0 l/m 0 min 0 min 0 W/m 35,6 km/h (5 Bft) 97,87 %
17.11.2016 19:12 11,3 C 11,7 C 10,0 C 88 % 0 lf 999,2 hPa 0,0 l/m 0 min 0 min 0 W/m 31,4 km/h (5 Bft) 97,87 %
17.11.2016 19:14 11,3 C 11,7 C 10,0 C 88 % 0 lf 999,2 hPa 0,0 l/m 0 min 0 min 0 W/m 52,3 km/h (7 Bft) 100,00 %
17.11.2016 19:16 11,3 C 11,7 C 10,0 C 88 % 0 lf 999,2 hPa 0,0 l/m 0 min 0 min 0 W/m 39,7 km/h (6 Bft) 100,00 %
17.11.2016 19:18 11,4 C 11,7 C 10,0 C 87 % 0 lf 999,2 hPa 0,0 l/m 0 min 0 min 0 W/m 33,5 km/h (5 Bft) 100,00 %
17.11.2016 19:20 11,4 C 11,7 C 10,0 C 87 % 0 lf 999,2 hPa 0,0 l/m 0 min 0 min 0 W/m 39,7 km/h (6 Bft) 97,87 %
17.11.2016 19:22 11,4 C 11,7 C 10,0 C 87 % 0 lf 999,1 hPa 0,0 l/m 0 min 0 min 0 W/m 37,7 km/h (5 Bft) 97,87 %
17.11.2016 19:24 11,5 C 11,7 C 10,0 C 87 % 0 lf 999,1 hPa 0,0 l/m 0 min 0 min 0 W/m 39,7 km/h (6 Bft) 100,00 %
17.11.2016 19:26 11,5 C 11,7 C 10,0 C 86 % 0 lf 999,1 hPa 0,0 l/m 0 min 0 min 0 W/m 25,1 km/h (4 Bft) 97,83 %
17.11.2016 19:28 11,5 C 11,7 C 10,0 C 86 % 0 lf 999,2 hPa 0,0 l/m 0 min 0 min 0 W/m 39,7 km/h (6 Bft) 100,00 %
17.11.2016 19:30 11,5 C 11,7 C 10,0 C 86 % 0 lf 999,2 hPa 0,0 l/m 0 min 0 min 0 W/m 29,3 km/h (5 Bft) 97,87 %
17.11.2016 19:32 11,6 C 11,7 C 10,0 C 86 % 0 lf 999,2 hPa 0,0 l/m 0 min 0 min 0 W/m 41,8 km/h (6 Bft) 97,87 %
17.11.2016 19:34 11,6 C 11,7 C 10,0 C 86 % 0 lf 999,3 hPa 0,0 l/m 0 min 0 min 0 W/m 37,7 km/h (5 Bft) 97,87 %
17.11.2016 19:36 11,6 C 11,7 C 10,0 C 86 % 0 lf 999,1 hPa 0,0 l/m 0 min 0 min 0 W/m 35,6 km/h (5 Bft) 100,00 %
17.11.2016 19:38 11,6 C 11,7 C 10,0 C 86 % 0 lf 999,2 hPa 0,0 l/m 0 min 0 min 0 W/m 29,3 km/h (5 Bft) 97,87 %
17.11.2016 19:40 11,6 C 11,7 C 10,0 C 86 % 0 lf 999,1 hPa 0,0 l/m 0 min 0 min 0 W/m 31,4 km/h (5 Bft) 100,00 %
17.11.2016 19:42 11,6 C 11,7 C 10,0 C 86 % 0 lf 999,0 hPa 0,0 l/m 0 min 0 min 0 W/m 39,7 km/h (6 Bft) 97,87 %
17.11.2016 19:44 11,7 C 11,7 C 10,0 C 86 % 0 lf 999,0 hPa 0,0 l/m 0 min 0 min 0 W/m 46,0 km/h (6 Bft) 100,00 %
17.11.2016 19:46 11,7 C 11,7 C 10,0 C 86 % 0 lf 999,0 hPa 0,0 l/m 0 min 0 min 0 W/m 48,1 km/h (6 Bft) 97,87 %
17.11.2016 19:48 11,7 C 11,7 C 10,0 C 86 % 0 lf 998,9 hPa 0,0 l/m 0 min 0 min 0 W/m 43,9 km/h (6 Bft) 97,83 %
17.11.2016 19:50 11,7 C 11,7 C 10,0 C 85 % 0 lf 998,8 hPa 0,0 l/m 0 min 0 min 0 W/m 35,6 km/h (5 Bft) 95,74 %
17.11.2016 19:52 11,7 C 11,7 C 10,0 C 85 % 0 lf 998,8 hPa 0,0 l/m 0 min 0 min 0 W/m 31,4 km/h (5 Bft) 95,74 %
17.11.2016 19:54 11,7 C 11,7 C 10,0 C 85 % 0 lf 998,8 hPa 0,0 l/m 0 min 0 min 0 W/m 31,4 km/h (5 Bft) 97,87 %
17.11.2016 19:56 11,7 C 11,7 C 10,0 C 85 % 0 lf 998,8 hPa 0,0 l/m 0 min 0 min 0 W/m 37,7 km/h (5 Bft) 97,87 %
17.11.2016 19:58 11,7 C 11,7 C 10,0 C 85 % 0 lf 998,7 hPa 0,0 l/m 0 min 0 min 0 W/m 27,2 km/h (4 Bft) 95,74 %
17.11.2016 20:00 11,7 C 11,7 C 10,0 C 85 % 0 lf 998,8 hPa 0,0 l/m 0 min 0 min 0 W/m 31,4 km/h (5 Bft) 93,48 %
17.11.2016 20:02 11,7 C 11,7 C 10,0 C 85 % 0 lf 998,7 hPa 0,0 l/m 0 min 0 min 0 W/m 37,7 km/h (5 Bft) 95,74 %
17.11.2016 20:04 11,7 C 11,7 C 10,0 C 85 % 0 lf 998,8 hPa 0,0 l/m 0 min 0 min 0 W/m 37,7 km/h (5 Bft) 95,74 %
17.11.2016 20:06 11,7 C 11,7 C 10,0 C 85 % 0 lf 998,8 hPa 0,0 l/m 0 min 0 min 0 W/m 29,3 km/h (5 Bft) 93,62 %
17.11.2016 20:08 11,7 C 11,7 C 10,0 C 85 % 0 lf 998,8 hPa 0,0 l/m 0 min 0 min 0 W/m 35,6 km/h (5 Bft) 95,74 %
17.11.2016 20:10 11,7 C 11,7 C 10,0 C 85 % 0 lf 998,8 hPa 0,0 l/m 0 min 0 min 0 W/m 35,6 km/h (5 Bft) 95,74 %
17.11.2016 20:12 11,7 C 11,7 C 10,0 C 85 % 0 lf 998,7 hPa 0,0 l/m 0 min 0 min 0 W/m 35,6 km/h (5 Bft) 91,30 %
17.11.2016 20:14 11,7 C 11,7 C 10,0 C 85 % 0 lf 998,7 hPa 0,0 l/m 0 min 0 min 0 W/m 33,5 km/h (5 Bft) 93,62 %
17.11.2016 20:16 11,7 C 11,7 C 10,0 C 85 % 0 lf 998,6 hPa 0,0 l/m 0 min 0 min 0 W/m 23,0 km/h (4 Bft) 95,74 %
17.11.2016 20:18 11,7 C 11,7 C 10,0 C 85 % 0 lf 998,6 hPa 0,0 l/m 0 min 0 min 0 W/m 27,2 km/h (4 Bft) 93,62 %
17.11.2016 20:20 11,7 C 11,7 C 10,0 C 85 % 1 lf 998,5 hPa 0,0 l/m 0 min 0 min 0 W/m 25,1 km/h (4 Bft) 90,91 %
17.11.2016 20:22 11,7 C 11,7 C 10,0 C 85 % 2 lf 998,4 hPa 0,0 l/m 0 min 2 min 0 W/m 29,3 km/h (5 Bft) 93,62 %
17.11.2016 20:24 11,7 C 11,7 C 10,0 C 85 % 0 lf 998,4 hPa 0,0 l/m 0 min 0 min 0 W/m 23,0 km/h (4 Bft) 87,23 %
17.11.2016 20:26 11,7 C 11,7 C 10,0 C 85 % 1 lf 998,5 hPa 0,0 l/m 0 min 2 min 0 W/m 31,4 km/h (5 Bft) 89,36 %
17.11.2016 20:28 11,7 C 11,7 C 10,0 C 85 % 0 lf 998,4 hPa 0,0 l/m 0 min 2 min 0 W/m 31,4 km/h (5 Bft) 93,62 %
17.11.2016 20:30 11,7 C 11,7 C 10,0 C 85 % 0 lf 998,4 hPa 0,0 l/m 0 min 0 min 0 W/m 23,0 km/h (4 Bft) 91,30 %
17.11.2016 20:32 11,7 C 11,7 C 10,0 C 85 % 0 lf 998,3 hPa 0,0 l/m 0 min 0 min 0 W/m 31,4 km/h (5 Bft) 91,49 %
17.11.2016 20:34 11,7 C 11,7 C 10,0 C 85 % 0 lf 998,3 hPa 0,0 l/m 0 min 0 min 0 W/m 33,5 km/h (5 Bft) 93,62 %
17.11.2016 20:36 11,7 C 12,2 C 10,0 C 85 % 0 lf 998,2 hPa 0,0 l/m 0 min 0 min 0 W/m 29,3 km/h (5 Bft) 87,23 %
17.11.2016 20:38 11,7 C 12,2 C 10,0 C 85 % 0 lf 998,2 hPa 0,0 l/m 0 min 0 min 0 W/m 33,5 km/h (5 Bft) 93,62 %
17.11.2016 20:40 11,7 C 12,2 C 10,0 C 85 % 0 lf 998,2 hPa 0,0 l/m 0 min 0 min 0 W/m 37,7 km/h (5 Bft) 93,62 %
17.11.2016 20:42 11,8 C 12,2 C 10,0 C 85 % 0 lf 998,2 hPa 0,0 l/m 0 min 0 min 0 W/m 29,3 km/h (5 Bft) 91,30 %
17.11.2016 20:44 11,8 C 12,2 C 10,0 C 85 % 0 lf 998,1 hPa 0,0 l/m 0 min 0 min 0 W/m 33,5 km/h (5 Bft) 91,49 %
17.11.2016 20:46 11,8 C 12,2 C 10,0 C 85 % 0 lf 998,1 hPa 0,0 l/m 0 min 0 min 0 W/m 29,3 km/h (5 Bft) 91,49 %
17.11.2016 20:48 11,8 C 11,7 C 10,0 C 85 % 0 lf 998,2 hPa 0,0 l/m 0 min 0 min 0 W/m 29,3 km/h (5 Bft) 89,36 %
17.11.2016 20:50 11,8 C 11,7 C 10,0 C 85 % 0 lf 998,1 hPa 0,0 l/m 0 min 2 min 0 W/m 29,3 km/h (5 Bft) 95,74 %
17.11.2016 20:52 11,8 C 11,7 C 10,0 C 85 % 0 lf 998,1 hPa 0,0 l/m 0 min 0 min 0 W/m 39,7 km/h (6 Bft) 95,65 %
17.11.2016 20:54 11,8 C 11,7 C 10,0 C 85 % 0 lf 998,1 hPa 0,0 l/m 0 min 0 min 0 W/m 46,0 km/h (6 Bft) 89,36 %
17.11.2016 20:56 11,8 C 11,7 C 10,0 C 85 % 1 lf 998,2 hPa 0,0 l/m 0 min 0 min 0 W/m 43,9 km/h (6 Bft) 95,74 %
17.11.2016 20:58 11,8 C 11,7 C 9,4 C 85 % 8 lf 998,1 hPa 0,0 l/m 0 min 2 min 0 W/m 33,5 km/h (5 Bft) 95,74 %
17.11.2016 21:00 11,8 C 11,1 C 9,4 C 86 % 4 lf 997,9 hPa 0,0 l/m 0 min 2 min 0 W/m 25,1 km/h (4 Bft) 95,74 %
17.11.2016 21:02 11,8 C 11,7 C 9,4 C 86 % 4 lf 998,0 hPa 0,0 l/m 0 min 2 min 0 W/m 37,7 km/h (5 Bft) 93,62 %
17.11.2016 21:04 11,8 C 10,6 C 8,9 C 86 % 10 lf 998,0 hPa 0,0 l/m 0 min 2 min 0 W/m 25,1 km/h (4 Bft) 93,48 %
17.11.2016 21:06 11,8 C 10,6 C 8,9 C 86 % 11 lf 997,8 hPa 0,0 l/m 0 min 2 min 0 W/m 35,6 km/h (5 Bft) 95,74 %
17.11.2016 21:08 11,8 C 10,6 C 8,9 C 86 % 10 lf 997,8 hPa 0,0 l/m 0 min 2 min 0 W/m 23,0 km/h (4 Bft) 93,62 %
17.11.2016 21:10 11,8 C 10,6 C 8,9 C 86 % 9 lf 997,7 hPa 0,0 l/m 0 min 2 min 0 W/m 35,6 km/h (5 Bft) 93,62 %
17.11.2016 21:12 11,7 C 10,6 C 8,9 C 87 % 12 lf 997,7 hPa 0,0 l/m 0 min 2 min 0 W/m 37,7 km/h (5 Bft) 93,62 %
17.11.2016 21:14 11,7 C 10,6 C 8,9 C 87 % 10 lf 997,8 hPa 0,0 l/m 0 min 2 min 0 W/m 29,3 km/h (5 Bft) 93,62 %
17.11.2016 21:16 11,7 C 10,6 C 8,9 C 87 % 7 lf 997,7 hPa 0,0 l/m 0 min 2 min 5 W/m 35,6 km/h (5 Bft) 93,48 %
17.11.2016 21:18 11,7 C 11,1 C 8,9 C 87 % 3 lf 997,7 hPa 0,0 l/m 0 min 2 min 0 W/m 29,3 km/h (5 Bft) 97,87 %
17.11.2016 21:20 11,7 C 11,7 C 8,9 C 87 % 1 lf 997,7 hPa 0,0 l/m 0 min 2 min 0 W/m 43,9 km/h (6 Bft) 95,74 %
17.11.2016 21:22 11,7 C 11,7 C 9,4 C 87 % 0 lf 997,7 hPa 0,0 l/m 0 min 2 min 0 W/m 41,8 km/h (6 Bft) 97,87 %
17.11.2016 21:24 11,7 C 11,7 C 9,4 C 87 % 0 lf 997,6 hPa 0,0 l/m 0 min 2 min 0 W/m 33,5 km/h (5 Bft) 97,87 %
17.11.2016 21:26 11,7 C 11,7 C 9,4 C 86 % 0 lf 997,6 hPa 0,0 l/m 0 min 2 min 0 W/m 27,2 km/h (4 Bft) 97,87 %
17.11.2016 21:28 11,8 C 12,2 C 9,4 C 86 % 0 lf 997,7 hPa 0,0 l/m 0 min 2 min 0 W/m 35,6 km/h (5 Bft) 100,00 %
17.11.2016 21:30 11,8 C 12,2 C 10,0 C 86 % 0 lf 997,6 hPa 0,0 l/m 0 min 2 min 0 W/m 41,8 km/h (6 Bft) 97,83 %
17.11.2016 21:32 11,8 C 12,2 C 10,0 C 86 % 0 lf 997,6 hPa 0,0 l/m 0 min 2 min 0 W/m 31,4 km/h (5 Bft) 100,00 %
17.11.2016 21:34 11,9 C 12,2 C 10,0 C 86 % 0 lf 997,6 hPa 0,0 l/m 0 min 2 min 0 W/m 31,4 km/h (5 Bft) 100,00 %
17.11.2016 21:36 11,9 C 12,2 C 10,0 C 86 % 0 lf 997,5 hPa 0,0 l/m 0 min 0 min 0 W/m 25,1 km/h (4 Bft) 100,00 %
17.11.2016 21:38 11,9 C 12,2 C 10,0 C 85 % 0 lf 997,5 hPa 0,0 l/m 0 min 0 min 0 W/m 25,1 km/h (4 Bft) 100,00 %
17.11.2016 21:40 11,9 C 12,2 C 10,0 C 85 % 0 lf 997,5 hPa 0,0 l/m 0 min 2 min 0 W/m 46,0 km/h (6 Bft) 97,83 %
17.11.2016 21:42 12,0 C 12,2 C 10,0 C 85 % 0 lf 997,5 hPa 0,0 l/m 0 min 0 min 0 W/m 18,8 km/h (3 Bft) 100,00 %
17.11.2016 21:44 12,0 C 12,2 C 10,0 C 85 % 0 lf 997,4 hPa 0,0 l/m 0 min 2 min 0 W/m 46,0 km/h (6 Bft) 95,74 %
17.11.2016 21:46 12,0 C 12,2 C 10,6 C 85 % 0 lf 997,5 hPa 0,0 l/m 0 min 2 min 0 W/m 29,3 km/h (5 Bft) 100,00 %
17.11.2016 21:48 12,1 C 12,2 C 10,6 C 85 % 0 lf 997,5 hPa 0,0 l/m 0 min 0 min 0 W/m 46,0 km/h (6 Bft) 97,87 %
17.11.2016 21:50 12,1 C 12,2 C 10,6 C 85 % 0 lf 997,4 hPa 0,0 l/m 0 min 2 min 0 W/m 33,5 km/h (5 Bft) 95,74 %
17.11.2016 21:52 12,2 C 12,8 C 10,6 C 84 % 1 lf 997,3 hPa 0,0 l/m 0 min 2 min 0 W/m 46,0 km/h (6 Bft) 100,00 %
17.11.2016 21:54 12,2 C 12,2 C 10,6 C 84 % 1 lf 997,2 hPa 0,0 l/m 0 min 2 min 0 W/m 31,4 km/h (5 Bft) 97,87 %
17.11.2016 21:56 12,3 C 12,2 C 10,6 C 84 % 0 lf 997,2 hPa 0,0 l/m 0 min 2 min 0 W/m 35,6 km/h (5 Bft) 97,87 %
17.11.2016 21:58 12,3 C 12,8 C 10,6 C 84 % 0 lf 997,2 hPa 0,0 l/m 0 min 0 min 0 W/m 46,0 km/h (6 Bft) 97,87 %
17.11.2016 22:00 12,3 C 12,8 C 10,6 C 84 % 0 lf 997,1 hPa 0,0 l/m 0 min 2 min 0 W/m 39,7 km/h (6 Bft) 97,87 %
17.11.2016 22:02 12,3 C 12,8 C 10,6 C 83 % 0 lf 997,2 hPa 0,0 l/m 0 min 2 min 0 W/m 37,7 km/h (5 Bft) 97,87 %
17.11.2016 22:04 12,4 C 12,2 C 10,6 C 84 % 3 lf 997,2 hPa 0,0 l/m 0 min 2 min 0 W/m 35,6 km/h (5 Bft) 93,48 %
17.11.2016 22:06 12,4 C 12,2 C 10,0 C 84 % 4 lf 997,2 hPa 0,0 l/m 0 min 2 min 0 W/m 29,3 km/h (5 Bft) 97,87 %
17.11.2016 22:08 12,4 C 12,2 C 10,0 C 84 % 1 lf 997,2 hPa 0,0 l/m 0 min 0 min 0 W/m 29,3 km/h (5 Bft) 97,87 %
17.11.2016 22:10 12,4 C 12,2 C 10,0 C 84 % 0 lf 997,2 hPa 0,0 l/m 0 min 0 min 0 W/m 37,7 km/h (5 Bft) 97,87 %
17.11.2016 22:12 12,3 C 12,2 C 10,0 C 84 % 0 lf 997,1 hPa 0,0 l/m 0 min 0 min 0 W/m 31,4 km/h (5 Bft) 95,74 %
17.11.2016 22:14 12,3 C 12,2 C 10,0 C 84 % 0 lf 997,0 hPa 0,0 l/m 0 min 0 min 0 W/m 48,1 km/h (6 Bft) 97,87 %
17.11.2016 22:16 12,3 C 12,8 C 10,6 C 84 % 0 lf 997,1 hPa 0,0 l/m 0 min 0 min 0 W/m 48,1 km/h (6 Bft) 95,65 %
17.11.2016 22:18 12,4 C 12,8 C 10,6 C 84 % 0 lf 997,0 hPa 0,0 l/m 0 min 0 min 0 W/m 31,4 km/h (5 Bft) 93,62 %
17.11.2016 22:20 12,4 C 12,8 C 10,6 C 84 % 0 lf 997,1 hPa 0,0 l/m 0 min 0 min 0 W/m 25,1 km/h (4 Bft) 95,74 %
17.11.2016 22:22 12,4 C 12,2 C 10,6 C 84 % 0 lf 996,9 hPa 0,0 l/m 0 min 0 min 0 W/m 23,0 km/h (4 Bft) 97,87 %
17.11.2016 22:24 12,4 C 12,2 C 10,6 C 84 % 0 lf 997,0 hPa 0,0 l/m 0 min 0 min 0 W/m 46,0 km/h (6 Bft) 93,62 %
17.11.2016 22:26 12,4 C 12,2 C 10,6 C 84 % 0 lf 996,9 hPa 0,0 l/m 0 min 0 min 0 W/m 37,7 km/h (5 Bft) 97,83 %
17.11.2016 22:28 12,4 C 12,2 C 10,6 C 84 % 0 lf 996,9 hPa 0,0 l/m 0 min 0 min 0 W/m 23,0 km/h (4 Bft) 100,00 %
17.11.2016 22:30 12,4 C 12,2 C 10,6 C 84 % 2 lf 997,0 hPa 0,0 l/m 0 min 2 min 0 W/m 39,7 km/h (6 Bft) 100,00 %
17.11.2016 22:32 12,4 C 12,2 C 10,6 C 84 % 0 lf 997,0 hPa 0,0 l/m 0 min 2 min 0 W/m 46,0 km/h (6 Bft) 97,87 %
17.11.2016 22:34 12,4 C 12,2 C 10,6 C 83 % 0 lf 996,8 hPa 0,0 l/m 0 min 0 min 0 W/m 39,7 km/h (6 Bft) 97,87 %
17.11.2016 22:36 12,4 C 12,2 C 10,6 C 83 % 0 lf 996,9 hPa 0,0 l/m 0 min 0 min 0 W/m 37,7 km/h (5 Bft) 97,87 %
17.11.2016 22:38 12,4 C 12,2 C 10,6 C 83 % 0 lf 996,8 hPa 0,0 l/m 0 min 0 min 0 W/m 35,6 km/h (5 Bft) 95,65 %
17.11.2016 22:40 12,4 C 12,2 C 10,6 C 83 % 0 lf 996,9 hPa 0,0 l/m 0 min 2 min 0 W/m 29,3 km/h (5 Bft) 100,00 %
17.11.2016 22:42 12,4 C 11,7 C 10,0 C 84 % 4 lf 996,9 hPa 0,0 l/m 0 min 2 min 0 W/m 41,8 km/h (6 Bft) 97,87 %
17.11.2016 22:44 12,4 C 10,6 C 9,4 C 84 % 15 lf 996,8 hPa 0,0 l/m 0 min 2 min 0 W/m 52,3 km/h (7 Bft) 97,87 %
17.11.2016 22:46 12,3 C 10,6 C 8,9 C 85 % 15 lf 996,9 hPa 0,2 l/m 0 min 2 min 0 W/m 35,6 km/h (5 Bft) 100,00 %
17.11.2016 22:48 12,3 C 10,0 C 8,9 C 86 % 15 lf 997,0 hPa 0,0 l/m 0 min 2 min 0 W/m 35,6 km/h (5 Bft) 95,74 %
17.11.2016 22:50 12,2 C 10,0 C 8,9 C 86 % 15 lf 996,9 hPa 0,0 l/m 0 min 2 min 0 W/m 39,7 km/h (6 Bft) 100,00 %
17.11.2016 22:52 12,1 C 10,0 C 8,9 C 87 % 15 lf 996,8 hPa 0,0 l/m 0 min 2 min 0 W/m 39,7 km/h (6 Bft) 97,87 %
17.11.2016 22:54 11,9 C 10,0 C 8,9 C 87 % 15 lf 996,9 hPa 0,0 l/m 0 min 2 min 0 W/m 35,6 km/h (5 Bft) 100,00 %
17.11.2016 22:56 11,9 C 10,0 C 8,9 C 88 % 15 lf 996,8 hPa 0,0 l/m 0 min 2 min 0 W/m 23,0 km/h (4 Bft) 97,87 %
17.11.2016 22:58 11,8 C 10,0 C 8,9 C 88 % 15 lf 996,8 hPa 0,0 l/m 0 min 2 min 0 W/m 39,7 km/h (6 Bft) 95,74 %
17.11.2016 23:00 11,7 C 10,0 C 8,3 C 89 % 15 lf 996,7 hPa 0,0 l/m 0 min 0 min 0 W/m 29,3 km/h (5 Bft) 97,87 %
17.11.2016 23:02 11,6 C 10,0 C 8,3 C 89 % 15 lf 996,7 hPa 0,0 l/m 0 min 0 min 0 W/m 25,1 km/h (4 Bft) 97,83 %
17.11.2016 23:04 11,6 C 10,0 C 8,3 C 89 % 15 lf 996,7 hPa 0,0 l/m 0 min 0 min 0 W/m 23,0 km/h (4 Bft) 95,74 %
17.11.2016 23:06 11,5 C 10,0 C 8,3 C 89 % 15 lf 996,6 hPa 0,0 l/m 0 min 0 min 0 W/m 27,2 km/h (4 Bft) 95,74 %
17.11.2016 23:08 11,4 C 10,0 C 8,3 C 89 % 15 lf 996,7 hPa 0,0 l/m 0 min 0 min 0 W/m 33,5 km/h (5 Bft) 95,74 %
17.11.2016 23:10 11,4 C 10,0 C 8,3 C 90 % 15 lf 996,7 hPa 0,0 l/m 0 min 0 min 0 W/m 31,4 km/h (5 Bft) 95,74 %
17.11.2016 23:12 11,3 C 10,0 C 8,3 C 89 % 15 lf 996,6 hPa 0,0 l/m 0 min 0 min 0 W/m 23,0 km/h (4 Bft) 95,74 %
17.11.2016 23:14 11,3 C 10,0 C 8,3 C 90 % 15 lf 996,5 hPa 0,0 l/m 0 min 0 min 0 W/m 27,2 km/h (4 Bft) 97,83 %
17.11.2016 23:16 11,2 C 10,0 C 8,3 C 90 % 15 lf 996,4 hPa 0,0 l/m 0 min 0 min 0 W/m 29,3 km/h (5 Bft) 93,62 %
17.11.2016 23:18 11,2 C 10,0 C 8,3 C 90 % 15 lf 996,4 hPa 0,0 l/m 0 min 0 min 0 W/m 37,7 km/h (5 Bft) 95,74 %
17.11.2016 23:20 11,2 C 10,0 C 8,3 C 89 % 15 lf 996,4 hPa 0,0 l/m 0 min 2 min 0 W/m 29,3 km/h (5 Bft) 93,62 %
17.11.2016 23:22 11,2 C 10,0 C 8,3 C 89 % 15 lf 996,4 hPa 0,0 l/m 0 min 0 min 0 W/m 29,3 km/h (5 Bft) 95,74 %
17.11.2016 23:24 11,2 C 10,0 C 8,3 C 89 % 15 lf 996,3 hPa 0,0 l/m 0 min 0 min 0 W/m 23,0 km/h (4 Bft) 95,65 %
17.11.2016 23:26 11,2 C 10,0 C 8,3 C 89 % 15 lf 996,4 hPa 0,0 l/m 0 min 0 min 0 W/m 27,2 km/h (4 Bft) 91,49 %
17.11.2016 23:28 11,1 C 10,0 C 7,8 C 89 % 15 lf 996,3 hPa 0,0 l/m 0 min 0 min 0 W/m 20,9 km/h (4 Bft) 95,74 %
17.11.2016 23:30 11,1 C 10,0 C 7,8 C 89 % 15 lf 996,3 hPa 0,0 l/m 0 min 0 min 0 W/m 27,2 km/h (4 Bft) 95,74 %
17.11.2016 23:32 11,1 C 10,0 C 7,8 C 89 % 15 lf 996,3 hPa 0,0 l/m 0 min 0 min 0 W/m 25,1 km/h (4 Bft) 91,49 %
17.11.2016 23:34 11,1 C 10,0 C 8,3 C 89 % 13 lf 996,4 hPa 0,0 l/m 0 min 0 min 0 W/m 35,6 km/h (5 Bft) 93,62 %
17.11.2016 23:36 11,1 C 10,0 C 8,3 C 89 % 9 lf 996,4 hPa 0,0 l/m 0 min 2 min 0 W/m 41,8 km/h (6 Bft) 91,49 %
17.11.2016 23:38 11,1 C 10,0 C 8,3 C 89 % 4 lf 996,3 hPa 0,0 l/m 0 min 2 min 0 W/m 35,6 km/h (5 Bft) 95,65 %
17.11.2016 23:40 11,2 C 10,0 C 8,3 C 89 % 2 lf 996,1 hPa 0,0 l/m 0 min 0 min 0 W/m 43,9 km/h (6 Bft) 95,74 %
17.11.2016 23:42 11,2 C 10,0 C 8,3 C 88 % 0 lf 996,2 hPa 0,0 l/m 0 min 0 min 0 W/m 31,4 km/h (5 Bft) 91,49 %
17.11.2016 23:44 11,2 C 10,0 C 8,3 C 88 % 0 lf 996,2 hPa 0,0 l/m 0 min 0 min 0 W/m 35,6 km/h (5 Bft) 93,62 %
17.11.2016 23:46 11,2 C 10,0 C 8,3 C 88 % 0 lf 996,1 hPa 0,0 l/m 0 min 0 min 0 W/m 35,6 km/h (5 Bft) 95,74 %
17.11.2016 23:48 11,3 C 10,6 C 8,3 C 87 % 0 lf 996,2 hPa 0,0 l/m 0 min 0 min 0 W/m 37,7 km/h (5 Bft) 95,74 %
17.11.2016 23:50 11,3 C 10,6 C 8,3 C 87 % 0 lf 996,0 hPa 0,0 l/m 0 min 2 min 0 W/m 35,6 km/h (5 Bft) 95,65 %
17.11.2016 23:52 11,3 C 10,0 C 8,3 C 87 % 0 lf 996,0 hPa 0,0 l/m 0 min 0 min 0 W/m 23,0 km/h (4 Bft) 93,62 %
17.11.2016 23:54 11,4 C 10,0 C 8,3 C 87 % 0 lf 996,0 hPa 0,0 l/m 0 min 0 min 0 W/m 33,5 km/h (5 Bft) 93,62 %
17.11.2016 23:56 11,4 C 10,6 C 8,3 C 87 % 0 lf 995,8 hPa 0,0 l/m 0 min 0 min 0 W/m 29,3 km/h (5 Bft) 95,74 %
17.11.2016 23:58 11,4 C 10,6 C 8,3 C 87 % 0 lf 995,9 hPa 0,0 l/m 0 min 0 min 0 W/m 35,6 km/h (5 Bft) 93,62 %
_ Min-Zeit 06:38 06:26 06:22 13:52 00:00 23:56 - - - - 04:30 20:24
Minimum _ 9,2 C 8,3 C 7,2 C 82 % 0 lf 995,8 hPa - - - - 10,5 km/h (2 Bft) 87,23 %
_ Max-Zeit 22:04 13:44 15:32 07:02 04:38 00:02 04:58 10:52 00:44 12:34 17:44 00:12
Maximum _ 12,4 C 17,2 C 10,6 C 96 % 15 lf 1010,5 hPa 0,2 l/m 2 min 2 min 689 W/m 56,5 km/h
SW (7 Bft)
100,00 %
Durchschnitt _ 10,8 C 10,9 C 9,0 C 90 % 4 lf 1003,7 hPa #1,8 l/m #2:56 h #5:00 h 113 W/m 26,3 km/h (4 Bft) 96,06 %
© 2016 W. Hausmann